| time (UTC) | temp F | wind direction | speed MPH | gust MPH | rain 1hr in | rain 24hr in | rain mn in | humidity % | barometer mb |
| 20260902174006 | 81 | 138 | 4.0 | 6.0 | 0.00 | 0.00 | 0.00 | 61 | 1014.6 |
| 20260902173908 | 81 | 138 | 4.0 | 6.0 | 0.00 | 0.00 | 0.00 | 61 | 1014.6 |
| 20260902173805 | 81 | 138 | 5.0 | 6.0 | 0.00 | 0.00 | 0.00 | 61 | 1014.6 |
| 20260902173705 | 81 | 138 | 4.0 | 6.0 | 0.00 | 0.00 | 0.00 | 61 | 1014.6 |
| 20260902173607 | 81 | 138 | 5.0 | 6.0 | 0.00 | 0.00 | 0.00 | 61 | 1014.6 |
| 20260902173505 | 81 | 138 | 5.0 | 6.0 | 0.00 | 0.00 | 0.00 | 61 | 1014.5 |
| 20260902173404 | 81 | 126 | 4.0 | 6.0 | 0.00 | 0.00 | 0.00 | 61 | 1014.5 |
| 20260902173105 | 82 | 119 | 4.0 | 6.0 | 0.00 | 0.00 | 0.00 | 60 | 1014.5 |
| 20260902173010 | 82 | 119 | 3.0 | 6.0 | 0.00 | 0.00 | 0.00 | 60 | 1014.5 |
| 20260902172905 | 82 | 119 | 3.0 | 6.0 | 0.00 | 0.00 | 0.00 | 60 | 1014.5 |
| 20260902172706 | 82 | 119 | 4.0 | 6.0 | 0.00 | 0.00 | 0.00 | 60 | 1014.5 |
| 20260902172505 | 83 | 132 | 6.0 | 7.0 | 0.00 | 0.00 | 0.00 | 59 | 1014.4 |
| 20260902172407 | 83 | 115 | 4.0 | 7.0 | 0.00 | 0.00 | 0.00 | 59 | 1014.4 |
| 20260902172308 | 83 | 120 | 3.0 | 7.0 | 0.00 | 0.00 | 0.00 | 59 | 1014.4 |
| 20260902172205 | 83 | 112 | 4.0 | 7.0 | 0.00 | 0.00 | 0.00 | 58 | 1014.4 |
| 20260902172107 | 83 | 105 | 4.0 | 7.0 | 0.00 | 0.00 | 0.00 | 58 | 1014.4 |
| 20260902172006 | 83 | 88 | 3.0 | 7.0 | 0.00 | 0.00 | 0.00 | 57 | 1014.4 |
| 20260902171904 | 83 | 119 | 2.0 | 7.0 | 0.00 | 0.00 | 0.00 | 58 | 1014.4 |
| 20260902171808 | 83 | 93 | 5.0 | 7.0 | 0.00 | 0.00 | 0.00 | 57 | 1014.4 |
| 20260902171705 | 84 | 97 | 3.0 | 7.0 | 0.00 | 0.00 | 0.00 | 57 | 1014.4 |
| 20260902171604 | 84 | 99 | 3.0 | 7.0 | 0.00 | 0.00 | 0.00 | 57 | 1014.4 |
| 20260902171507 | 84 | 88 | 3.0 | 7.0 | 0.00 | 0.00 | 0.00 | 56 | 1014.4 |
| 20260902171405 | 84 | 103 | 2.0 | 7.0 | 0.00 | 0.00 | 0.00 | 56 | 1014.4 |
| 20260902171304 | 84 | 79 | 3.0 | 7.0 | 0.00 | 0.00 | 0.00 | 56 | 1014.4 |
| 20260902171207 | 84 | 110 | 2.0 | 7.0 | 0.00 | 0.00 | 0.00 | 56 | 1014.4 |
| 20260902171105 | 84 | 104 | 2.0 | 7.0 | 0.00 | 0.00 | 0.00 | 56 | 1014.4 |
| 20260902170908 | 85 | 104 | 2.0 | 7.0 | 0.00 | 0.00 | 0.00 | 55 | 1014.4 |
| 20260902170805 | 85 | 125 | 6.0 | 7.0 | 0.00 | 0.00 | 0.00 | 55 | 1014.4 |
| 20260902170705 | 85 | 127 | 5.0 | 7.0 | 0.00 | 0.00 | 0.00 | 55 | 1014.4 |
| 20260902170608 | 85 | 109 | 3.0 | 8.0 | 0.00 | 0.00 | 0.00 | 55 | 1014.4 |
| 20260902170505 | 85 | 123 | 4.0 | 8.0 | 0.00 | 0.00 | 0.00 | 55 | 1014.5 |
| 20260902170405 | 85 | 118 | 4.0 | 8.0 | 0.00 | 0.00 | 0.00 | 55 | 1014.4 |
| 20260902170307 | 86 | 121 | 4.0 | 8.0 | 0.00 | 0.00 | 0.00 | 55 | 1014.4 |
| 20260902170104 | 86 | 115 | 3.0 | 8.0 | 0.00 | 0.00 | 0.00 | 54 | 1014.4 |
| 20260902165805 | 86 | 123 | 4.0 | 8.0 | 0.00 | 0.00 | 0.00 | 54 | 1014.4 |
| 20260902165708 | 86 | 101 | 6.0 | 8.0 | 0.00 | 0.00 | 0.00 | 55 | 1014.3 |
| 20260902165605 | 86 | 106 | 7.0 | 7.0 | 0.00 | 0.00 | 0.00 | 54 | 1014.4 |
| 20260902165505 | 86 | 102 | 3.0 | 5.0 | 0.00 | 0.00 | 0.00 | 54 | 1014.4 |
| 20260902165407 | 86 | 102 | 2.0 | 5.0 | 0.00 | 0.00 | 0.00 | 54 | 1014.4 |
| 20260902165308 | 87 | 119 | 4.0 | 5.0 | 0.00 | 0.00 | 0.00 | 54 | 1014.4 |
| 20260902165108 | 87 | 108 | 3.0 | 9.0 | 0.00 | 0.00 | 0.00 | 54 | 1014.4 |
| 20260902164904 | 87 | 85 | 2.0 | 9.0 | 0.00 | 0.00 | 0.00 | 54 | 1014.4 |
| 20260902164808 | 87 | 116 | 2.0 | 9.0 | 0.00 | 0.00 | 0.00 | 53 | 1014.4 |
| 20260902164705 | 87 | 111 | 5.0 | 9.0 | 0.00 | 0.00 | 0.00 | 54 | 1014.4 |
| 20260902164605 | 87 | 115 | 3.0 | 9.0 | 0.00 | 0.00 | 0.00 | 53 | 1014.4 |
| 20260902164508 | 87 | 121 | 4.0 | 9.0 | 0.00 | 0.00 | 0.00 | 52 | 1014.4 |
| 20260902164405 | 87 | 136 | 4.0 | 9.0 | 0.00 | 0.00 | 0.00 | 52 | 1014.3 |
| 20260902164304 | 87 | 112 | 5.0 | 9.0 | 0.00 | 0.00 | 0.00 | 52 | 1014.3 |
| 20260902164207 | 87 | 94 | 6.0 | 9.0 | 0.00 | 0.00 | 0.00 | 53 | 1014.4 |
| 20260902164106 | 87 | 121 | 4.0 | 8.0 | 0.00 | 0.00 | 0.00 | 52 | 1014.4 |
| 20260902164006 | 87 | 93 | 2.0 | 8.0 | 0.00 | 0.00 | 0.00 | 52 | 1014.3 |
| 20260902163907 | 87 | 93 | 2.0 | 8.0 | 0.00 | 0.00 | 0.00 | 51 | 1014.4 |
| 20260902163805 | 87 | 107 | 3.0 | 8.0 | 0.00 | 0.00 | 0.00 | 51 | 1014.4 |
| 20260902163704 | 87 | 82 | 7.0 | 8.0 | 0.00 | 0.00 | 0.00 | 52 | 1014.4 |
| 20260902163607 | 87 | 88 | 6.0 | 7.0 | 0.00 | 0.00 | 0.00 | 52 | 1014.4 |
| 20260902163505 | 88 | 96 | 5.0 | 7.0 | 0.00 | 0.00 | 0.00 | 51 | 1014.4 |
| 20260902163405 | 88 | 77 | 3.0 | 7.0 | 0.00 | 0.00 | 0.00 | 52 | 1014.4 |
| 20260902163307 | 88 | 122 | 3.0 | 8.0 | 0.00 | 0.00 | 0.00 | 52 | 1014.4 |
| 20260902163205 | 88 | 103 | 2.0 | 8.0 | 0.00 | 0.00 | 0.00 | 52 | 1014.5 |
| 20260902163104 | 88 | 113 | 2.0 | 8.0 | 0.00 | 0.00 | 0.00 | 52 | 1014.5 |
| 20260902163010 | 88 | 113 | 0.0 | 8.0 | 0.00 | 0.00 | 0.00 | 51 | 1014.5 |
| 20260902162905 | 88 | 113 | 2.0 | 8.0 | 0.00 | 0.00 | 0.00 | 52 | 1014.5 |
| 20260902162804 | 88 | 119 | 4.0 | 8.0 | 0.00 | 0.00 | 0.00 | 51 | 1014.5 |
| 20260902162709 | 88 | 123 | 7.0 | 8.0 | 0.00 | 0.00 | 0.00 | 51 | 1014.5 |
| 20260902162605 | 88 | 103 | 4.0 | 8.0 | 0.00 | 0.00 | 0.00 | 50 | 1014.6 |
| 20260902162504 | 88 | 103 | 3.0 | 9.0 | 0.00 | 0.00 | 0.00 | 51 | 1014.6 |
| 20260902162307 | 88 | 93 | 7.0 | 9.0 | 0.00 | 0.00 | 0.00 | 50 | 1014.6 |
| 20260902162109 | 88 | 51 | 4.0 | 10.0 | 0.00 | 0.00 | 0.00 | 51 | 1014.6 |
| 20260902162006 | 88 | 58 | 3.0 | 10.0 | 0.00 | 0.00 | 0.00 | 52 | 1014.6 |
| 20260902161905 | 87 | 110 | 2.0 | 10.0 | 0.00 | 0.00 | 0.00 | 51 | 1014.6 |
| 20260902161807 | 87 | 98 | 6.0 | 10.0 | 0.00 | 0.00 | 0.00 | 51 | 1014.6 |
| 20260902161705 | 87 | 81 | 5.0 | 10.0 | 0.00 | 0.00 | 0.00 | 52 | 1014.5 |
| 20260902161606 | 87 | 74 | 4.0 | 10.0 | 0.00 | 0.00 | 0.00 | 52 | 1014.5 |
| 20260902161507 | 87 | 91 | 8.0 | 10.0 | 0.00 | 0.00 | 0.00 | 52 | 1014.5 |
| 20260902161304 | 87 | 76 | 5.0 | 10.0 | 0.00 | 0.00 | 0.00 | 52 | 1014.5 |
| 20260902161207 | 86 | 67 | 5.0 | 9.0 | 0.00 | 0.00 | 0.00 | 53 | 1014.5 |
| 20260902161105 | 86 | 90 | 7.0 | 9.0 | 0.00 | 0.00 | 0.00 | 53 | 1014.5 |
| 20260902161005 | 86 | 70 | 3.0 | 9.0 | 0.00 | 0.00 | 0.00 | 53 | 1014.5 |
| 20260902160907 | 86 | 67 | 9.0 | 9.0 | 0.00 | 0.00 | 0.00 | 54 | 1014.5 |
| 20260902160804 | 85 | 81 | 7.0 | 8.0 | 0.00 | 0.00 | 0.00 | 55 | 1014.6 |
| 20260902160705 | 85 | 98 | 5.0 | 8.0 | 0.00 | 0.00 | 0.00 | 54 | 1014.6 |
| 20260902160607 | 85 | 70 | 5.0 | 8.0 | 0.00 | 0.00 | 0.00 | 55 | 1014.6 |
| 20260902160505 | 85 | 75 | 4.0 | 7.0 | 0.00 | 0.00 | 0.00 | 55 | 1014.8 |
| 20260902160404 | 85 | 84 | 7.0 | 7.0 | 0.00 | 0.00 | 0.00 | 54 | 1014.8 |
| 20260902160307 | 85 | 78 | 7.0 | 7.0 | 0.00 | 0.00 | 0.00 | 54 | 1014.8 |
| 20260902160205 | 85 | 87 | 3.0 | 7.0 | 0.00 | 0.00 | 0.00 | 54 | 1014.9 |
| 20260902160118 | 85 | 78 | 5.0 | 7.0 | 0.00 | 0.00 | 0.00 | 54 | 1014.9 |
| 20260902160011 | 85 | 78 | 5.0 | 7.0 | 0.00 | 0.00 | 0.00 | 54 | 1014.9 |
| 20260902155805 | 85 | 76 | 4.0 | 6.0 | 0.00 | 0.00 | 0.00 | 54 | 1014.8 |
| 20260902155708 | 85 | 65 | 3.0 | 6.0 | 0.00 | 0.00 | 0.00 | 54 | 1014.9 |
| 20260902155605 | 86 | 94 | 6.0 | 6.0 | 0.00 | 0.00 | 0.00 | 53 | 1014.9 |
| 20260902155505 | 86 | 57 | 4.0 | 7.0 | 0.00 | 0.00 | 0.00 | 53 | 1014.9 |
| 20260902155407 | 86 | 57 | 3.0 | 7.0 | 0.00 | 0.00 | 0.00 | 53 | 1015.0 |
| 20260902155307 | 86 | 84 | 3.0 | 7.0 | 0.00 | 0.00 | 0.00 | 53 | 1014.9 |
| 20260902155205 | 86 | 75 | 5.0 | 7.0 | 0.00 | 0.00 | 0.00 | 53 | 1014.9 |
| 20260902155108 | 86 | 68 | 5.0 | 7.0 | 0.00 | 0.00 | 0.00 | 52 | 1014.9 |
| 20260902155005 | 86 | 61 | 2.0 | 7.0 | 0.00 | 0.00 | 0.00 | 52 | 1014.9 |
| 20260902154904 | 86 | 72 | 4.0 | 10.0 | 0.00 | 0.00 | 0.00 | 52 | 1014.9 |
| 20260902154808 | 86 | 66 | 4.0 | 10.0 | 0.00 | 0.00 | 0.00 | 52 | 1014.8 |
| 20260902154706 | 86 | 61 | 7.0 | 10.0 | 0.00 | 0.00 | 0.00 | 53 | 1014.8 |
| 20260902154603 | 87 | 38 | 4.0 | 10.0 | 0.00 | 0.00 | 0.00 | 51 | 1014.8 |
| 20260902154508 | 87 | 46 | 5.0 | 10.0 | 0.00 | 0.00 | 0.00 | 52 | 1014.9 |
| 20260902154405 | 87 | 30 | 5.0 | 10.0 | 0.00 | 0.00 | 0.00 | 51 | 1014.9 |
| 20260902154305 | 87 | 53 | 6.0 | 10.0 | 0.00 | 0.00 | 0.00 | 51 | 1014.9 |
| 20260902154207 | 87 | 43 | 4.0 | 10.0 | 0.00 | 0.00 | 0.00 | 51 | 1014.9 |
| 20260902154105 | 87 | 58 | 5.0 | 10.0 | 0.00 | 0.00 | 0.00 | 51 | 1014.9 |
| 20260902154004 | 88 | 67 | 7.0 | 10.0 | 0.00 | 0.00 | 0.00 | 51 | 1014.8 |
| 20260902153804 | 88 | 40 | 5.0 | 10.0 | 0.00 | 0.00 | 0.00 | 50 | 1014.8 |
| 20260902153608 | 88 | 51 | 3.0 | 10.0 | 0.00 | 0.00 | 0.00 | 50 | 1014.8 |
| 20260902153506 | 88 | 28 | 5.0 | 10.0 | 0.00 | 0.00 | 0.00 | 49 | 1014.8 |
| 20260902153405 | 89 | 28 | 3.0 | 10.0 | 0.00 | 0.00 | 0.00 | 50 | 1014.8 |
| 20260902153307 | 89 | 26 | 4.0 | 10.0 | 0.00 | 0.00 | 0.00 | 49 | 1014.7 |
| 20260902153205 | 89 | 33 | 7.0 | 10.0 | 0.00 | 0.00 | 0.00 | 48 | 1014.8 |
| 20260902153105 | 89 | 25 | 5.0 | 10.0 | 0.00 | 0.00 | 0.00 | 48 | 1014.8 |
| 20260902153009 | 89 | 42 | 5.0 | 13.0 | 0.00 | 0.00 | 0.00 | 47 | 1014.8 |
| 20260902152905 | 90 | 33 | 8.0 | 13.0 | 0.00 | 0.00 | 0.00 | 48 | 1014.7 |
| 20260902152805 | 90 | 31 | 4.0 | 13.0 | 0.00 | 0.00 | 0.00 | 48 | 1014.7 |
| 20260902152707 | 90 | 47 | 2.0 | 13.0 | 0.00 | 0.00 | 0.00 | 47 | 1014.7 |
| 20260902152606 | 90 | 351 | 4.0 | 13.0 | 0.00 | 0.00 | 0.00 | 48 | 1014.7 |
| 20260902152308 | 90 | 38 | 6.0 | 13.0 | 0.00 | 0.00 | 0.00 | 49 | 1014.7 |
| 20260902152205 | 89 | 65 | 9.0 | 13.0 | 0.00 | 0.00 | 0.00 | 49 | 1014.6 |
| 20260902152108 | 89 | 128 | 5.0 | 13.0 | 0.00 | 0.00 | 0.00 | 49 | 1014.7 |
| 20260902152005 | 89 | 88 | 9.0 | 13.0 | 0.00 | 0.00 | 0.00 | 50 | 1014.7 |
| 20260902151904 | 89 | 110 | 4.0 | 13.0 | 0.00 | 0.00 | 0.00 | 50 | 1014.7 |
| 20260902151807 | 89 | 76 | 7.0 | 13.0 | 0.00 | 0.00 | 0.00 | 50 | 1014.8 |
| 20260902151706 | 89 | 106 | 5.0 | 13.0 | 0.00 | 0.00 | 0.00 | 49 | 1014.8 |
| 20260902151605 | 89 | 83 | 9.0 | 13.0 | 0.00 | 0.00 | 0.00 | 49 | 1014.8 |
| 20260902151306 | 89 | 61 | 4.0 | 13.0 | 0.00 | 0.00 | 0.00 | 49 | 1014.8 |
| 20260902151207 | 89 | 119 | 3.0 | 13.0 | 0.00 | 0.00 | 0.00 | 50 | 1014.8 |
| 20260902151105 | 89 | 78 | 11.0 | 13.0 | 0.00 | 0.00 | 0.00 | 49 | 1014.8 |
| 20260902151006 | 89 | 76 | 5.0 | 13.0 | 0.00 | 0.00 | 0.00 | 49 | 1014.8 |
| 20260902150908 | 89 | 77 | 12.0 | 12.0 | 0.00 | 0.00 | 0.00 | 48 | 1014.8 |
| 20260902150804 | 89 | 35 | 6.0 | 10.0 | 0.00 | 0.00 | 0.00 | 49 | 1014.8 |
| 20260902150704 | 89 | 42 | 7.0 | 10.0 | 0.00 | 0.00 | 0.00 | 48 | 1014.8 |
| 20260902150607 | 89 | 24 | 8.0 | 13.0 | 0.00 | 0.00 | 0.00 | 48 | 1014.8 |
| 20260902150505 | 89 | 41 | 7.0 | 13.0 | 0.00 | 0.00 | 0.00 | 48 | 1014.8 |
| 20260902150405 | 89 | 26 | 6.0 | 15.0 | 0.00 | 0.00 | 0.00 | 49 | 1014.8 |
| 20260902150307 | 89 | 55 | 6.0 | 15.0 | 0.00 | 0.00 | 0.00 | 49 | 1014.8 |
| 20260902150205 | 89 | 74 | 7.0 | 15.0 | 0.00 | 0.00 | 0.00 | 48 | 1014.8 |
| 20260902145904 | 89 | 31 | 7.0 | 15.0 | 0.00 | 0.00 | 0.00 | 48 | 1014.8 |
| 20260902145605 | 89 | 30 | 10.0 | 15.0 | 0.00 | 0.00 | 0.00 | 48 | 1014.7 |
| 20260902145505 | 89 | 82 | 8.0 | 15.0 | 0.00 | 0.00 | 0.00 | 48 | 1014.7 |
| 20260902145407 | 89 | 87 | 9.0 | 15.0 | 0.00 | 0.00 | 0.00 | 48 | 1014.7 |
| 20260902145306 | 89 | 73 | 12.0 | 14.0 | 0.00 | 0.00 | 0.00 | 47 | 1014.7 |
| 20260902145205 | 89 | 38 | 6.0 | 14.0 | 0.00 | 0.00 | 0.00 | 47 | 1014.7 |
| 20260902145107 | 89 | 46 | 11.0 | 14.0 | 0.00 | 0.00 | 0.00 | 47 | 1014.7 |
| 20260902144904 | 89 | 32 | 7.0 | 14.0 | 0.00 | 0.00 | 0.00 | 48 | 1014.6 |
| 20260902144807 | 89 | 46 | 10.0 | 14.0 | 0.00 | 0.00 | 0.00 | 47 | 1014.7 |
| 20260902144508 | 90 | 40 | 7.0 | 14.0 | 0.00 | 0.00 | 0.00 | 47 | 1014.6 |
| 20260902144404 | 90 | 29 | 9.0 | 16.0 | 0.00 | 0.00 | 0.00 | 47 | 1014.6 |
| 20260902144305 | 90 | 9 | 7.0 | 16.0 | 0.00 | 0.00 | 0.00 | 47 | 1014.6 |
| 20260902144206 | 90 | 27 | 9.0 | 16.0 | 0.00 | 0.00 | 0.00 | 47 | 1014.6 |
| 20260902144104 | 90 | 30 | 5.0 | 16.0 | 0.00 | 0.00 | 0.00 | 47 | 1014.6 |
| 20260902143907 | 90 | 36 | 8.0 | 13.0 | 0.00 | 0.00 | 0.00 | 47 | 1014.5 |
| 20260902143806 | 90 | 16 | 9.0 | 13.0 | 0.00 | 0.00 | 0.00 | 47 | 1014.5 |
| 20260902143704 | 90 | 54 | 8.0 | 13.0 | 0.00 | 0.00 | 0.00 | 48 | 1014.5 |
| 20260902143606 | 90 | 81 | 6.0 | 13.0 | 0.00 | 0.00 | 0.00 | 48 | 1014.5 |
| 20260902143405 | 90 | 25 | 8.0 | 13.0 | 0.00 | 0.00 | 0.00 | 47 | 1014.5 |
| 20260902143308 | 90 | 58 | 9.0 | 13.0 | 0.00 | 0.00 | 0.00 | 46 | 1014.5 |
| 20260902143205 | 90 | 33 | 10.0 | 12.0 | 0.00 | 0.00 | 0.00 | 46 | 1014.4 |
| 20260902143104 | 89 | 41 | 9.0 | 9.0 | 0.00 | 0.00 | 0.00 | 48 | 1014.5 |
| 20260902143010 | 89 | 32 | 7.0 | 10.0 | 0.00 | 0.00 | 0.00 | 46 | 1014.5 |
| 20260902142905 | 89 | 25 | 8.0 | 10.0 | 0.00 | 0.00 | 0.00 | 46 | 1014.5 |
| 20260902142805 | 89 | 32 | 7.0 | 10.0 | 0.00 | 0.00 | 0.00 | 46 | 1014.4 |
| 20260902142605 | 89 | 40 | 7.0 | 10.0 | 0.00 | 0.00 | 0.00 | 47 | 1014.5 |
| 20260902142408 | 89 | 11 | 4.0 | 10.0 | 0.00 | 0.00 | 0.00 | 45 | 1014.5 |
| 20260902142204 | 89 | 18 | 6.0 | 10.0 | 0.00 | 0.00 | 0.00 | 45 | 1014.5 |
| 20260902142005 | 90 | 30 | 7.0 | 10.0 | 0.00 | 0.00 | 0.00 | 45 | 1014.6 |
| 20260902141808 | 90 | 19 | 4.0 | 10.0 | 0.00 | 0.00 | 0.00 | 45 | 1014.6 |
| 20260902141705 | 90 | 29 | 6.0 | 10.0 | 0.00 | 0.00 | 0.00 | 45 | 1014.7 |
| 20260902141605 | 90 | 39 | 7.0 | 10.0 | 0.00 | 0.00 | 0.00 | 45 | 1014.7 |
| 20260902141508 | 90 | 40 | 5.0 | 9.0 | 0.00 | 0.00 | 0.00 | 45 | 1014.6 |
| 20260902141404 | 90 | 40 | 7.0 | 9.0 | 0.00 | 0.00 | 0.00 | 46 | 1014.7 |
| 20260902141305 | 90 | 24 | 8.0 | 8.0 | 0.00 | 0.00 | 0.00 | 48 | 1014.7 |
| 20260902141208 | 90 | 25 | 5.0 | 8.0 | 0.00 | 0.00 | 0.00 | 48 | 1014.8 |
| 20260902141105 | 90 | 351 | 5.0 | 10.0 | 0.00 | 0.00 | 0.00 | 47 | 1014.8 |
| 20260902141006 | 90 | 38 | 7.0 | 10.0 | 0.00 | 0.00 | 0.00 | 48 | 1014.8 |
| 20260902140907 | 90 | 34 | 8.0 | 10.0 | 0.00 | 0.00 | 0.00 | 47 | 1014.8 |
| 20260902140806 | 90 | 344 | 3.0 | 10.0 | 0.00 | 0.00 | 0.00 | 47 | 1014.8 |
| 20260902140704 | 90 | 315 | 2.0 | 10.0 | 0.00 | 0.00 | 0.00 | 47 | 1014.8 |
| 20260902140505 | 91 | 337 | 5.0 | 10.0 | 0.00 | 0.00 | 0.00 | 46 | 1014.9 |
| 20260902140405 | 91 | 333 | 2.0 | 10.0 | 0.00 | 0.00 | 0.00 | 46 | 1014.9 |
| 20260902140309 | 91 | 344 | 3.0 | 10.0 | 0.00 | 0.00 | 0.00 | 47 | 1014.9 |
| 20260902140204 | 91 | 17 | 3.0 | 10.0 | 0.00 | 0.00 | 0.00 | 47 | 1014.9 |
| 20260902140010 | 91 | 355 | 9.0 | 10.0 | 0.00 | 0.00 | 0.00 | 44 | 1014.9 |
| 20260902135906 | 91 | 32 | 6.0 | 10.0 | 0.00 | 0.00 | 0.00 | 45 | 1014.9 |
| 20260902135805 | 91 | 71 | 2.0 | 10.0 | 0.00 | 0.00 | 0.00 | 44 | 1014.9 |
| 20260902135708 | 91 | 46 | 5.0 | 10.0 | 0.00 | 0.00 | 0.00 | 44 | 1014.9 |
| 20260902135506 | 92 | 349 | 10.0 | 10.0 | 0.00 | 0.00 | 0.00 | 44 | 1014.9 |
| 20260902135406 | 92 | 26 | 7.0 | 9.0 | 0.00 | 0.00 | 0.00 | 45 | 1014.8 |
| 20260902135306 | 92 | 42 | 6.0 | 9.0 | 0.00 | 0.00 | 0.00 | 44 | 1014.9 |
| 20260902135106 | 91 | 24 | 7.0 | 9.0 | 0.00 | 0.00 | 0.00 | 46 | 1014.9 |
| 20260902135006 | 91 | 40 | 5.0 | 7.0 | 0.00 | 0.00 | 0.00 | 44 | 1014.9 |
| 20260902134905 | 91 | 256 | 0.0 | 6.0 | 0.00 | 0.00 | 0.00 | 44 | 1014.9 |
| 20260902134704 | 91 | 222 | 3.0 | 7.0 | 0.00 | 0.00 | 0.00 | 45 | 1014.9 |
| 20260902134605 | 91 | 295 | 2.0 | 8.0 | 0.00 | 0.00 | 0.00 | 46 | 1015.0 |
| 20260902134507 | 91 | 290 | 1.0 | 8.0 | 0.00 | 0.00 | 0.00 | 44 | 1014.9 |
| 20260902134404 | 90 | 290 | 2.0 | 8.0 | 0.00 | 0.00 | 0.00 | 45 | 1015.0 |
| 20260902134304 | 90 | 283 | 2.0 | 8.0 | 0.00 | 0.00 | 0.00 | 44 | 1015.0 |
| 20260902134207 | 90 | 334 | 1.0 | 8.0 | 0.00 | 0.00 | 0.00 | 46 | 1015.0 |
| 20260902134105 | 90 | 334 | 4.0 | 8.0 | 0.00 | 0.00 | 0.00 | 44 | 1015.0 |
| 20260902134005 | 91 | 350 | 4.0 | 8.0 | 0.00 | 0.00 | 0.00 | 46 | 1015.0 |
| 20260902133907 | 91 | 26 | 2.0 | 9.0 | 0.00 | 0.00 | 0.00 | 45 | 1015.0 |
| 20260902133804 | 91 | 15 | 4.0 | 9.0 | 0.00 | 0.00 | 0.00 | 44 | 1015.0 |
| 20260902133705 | 91 | 24 | 6.0 | 9.0 | 0.00 | 0.00 | 0.00 | 44 | 1015.0 |
| 20260902133608 | 91 | 28 | 8.0 | 9.0 | 0.00 | 0.00 | 0.00 | 44 | 1015.0 |
| 20260902133404 | 92 | 22 | 6.0 | 9.0 | 0.00 | 0.00 | 0.00 | 43 | 1015.0 |
| 20260902133308 | 92 | 5 | 3.0 | 9.0 | 0.00 | 0.00 | 0.00 | 43 | 1015.0 |
| 20260902133205 | 92 | 32 | 8.0 | 9.0 | 0.00 | 0.00 | 0.00 | 45 | 1015.0 |
| 20260902133009 | 92 | 331 | 5.0 | 9.0 | 0.00 | 0.00 | 0.00 | 45 | 1015.0 |
| 20260902132804 | 92 | 345 | 7.0 | 9.0 | 0.00 | 0.00 | 0.00 | 47 | 1015.1 |
| 20260902132707 | 92 | 360 | 3.0 | 8.0 | 0.00 | 0.00 | 0.00 | 47 | 1015.2 |
| 20260902132604 | 92 | 355 | 7.0 | 8.0 | 0.00 | 0.00 | 0.00 | 46 | 1015.2 |
| 20260902132505 | 92 | 332 | 5.0 | 9.0 | 0.00 | 0.00 | 0.00 | 46 | 1015.2 |
| 20260902132408 | 91 | 355 | 5.0 | 9.0 | 0.00 | 0.00 | 0.00 | 45 | 1015.2 |
| 20260902132205 | 91 | 19 | 7.0 | 9.0 | 0.00 | 0.00 | 0.00 | 46 | 1015.3 |
| 20260902132107 | 91 | 23 | 6.0 | 9.0 | 0.00 | 0.00 | 0.00 | 45 | 1015.3 |
| 20260902132005 | 91 | 32 | 4.0 | 9.0 | 0.00 | 0.00 | 0.00 | 44 | 1015.2 |
| 20260902131507 | 91 | 16 | 6.0 | 9.0 | 0.00 | 0.00 | 0.00 | 50 | 1015.3 |
| 20260902131304 | 90 | 24 | 5.0 | 8.0 | 0.00 | 0.00 | 0.00 | 46 | 1015.3 |
| 20260902131206 | 90 | 10 | 3.0 | 8.0 | 0.00 | 0.00 | 0.00 | 45 | 1015.3 |
| 20260902131105 | 90 | 21 | 5.0 | 8.0 | 0.00 | 0.00 | 0.00 | 46 | 1015.4 |
| 20260902131005 | 90 | 11 | 5.0 | 8.0 | 0.00 | 0.00 | 0.00 | 48 | 1015.4 |
| 20260902130803 | 90 | 338 | 7.0 | 8.0 | 0.00 | 0.00 | 0.00 | 49 | 1015.3 |
| 20260902130704 | 90 | 360 | 6.0 | 8.0 | 0.00 | 0.00 | 0.00 | 47 | 1015.4 |
| 20260902130608 | 90 | 334 | 8.0 | 8.0 | 0.00 | 0.00 | 0.00 | 46 | 1015.3 |
| 20260902130505 | 90 | 9 | 1.0 | 5.0 | 0.00 | 0.00 | 0.00 | 47 | 1015.4 |
| 20260902130404 | 90 | 28 | 2.0 | 5.0 | 0.00 | 0.00 | 0.00 | 45 | 1015.4 |
| 20260902130307 | 90 | 265 | 2.0 | 6.0 | 0.00 | 0.00 | 0.00 | 45 | 1015.4 |
| 20260902130204 | 90 | 265 | 1.0 | 6.0 | 0.00 | 0.00 | 0.00 | 44 | 1015.4 |
| 20260902130012 | 91 | 265 | 0.0 | 6.0 | 0.00 | 0.00 | 0.00 | 45 | 1015.4 |
| 20260902125904 | 91 | 279 | 2.0 | 7.0 | 0.00 | 0.00 | 0.00 | 44 | 1015.4 |
| 20260902125806 | 91 | 279 | 2.0 | 7.0 | 0.00 | 0.00 | 0.00 | 43 | 1015.5 |
| 20260902125707 | 91 | 294 | 3.0 | 7.0 | 0.00 | 0.00 | 0.00 | 44 | 1015.5 |
| 20260902125606 | 91 | 18 | 1.0 | 10.0 | 0.00 | 0.00 | 0.00 | 46 | 1015.5 |
| 20260902125505 | 91 | 18 | 3.0 | 10.0 | 0.00 | 0.00 | 0.00 | 47 | 1015.4 |
| 20260902125408 | 91 | 9 | 3.0 | 10.0 | 0.00 | 0.00 | 0.00 | 46 | 1015.4 |
| 20260902125204 | 91 | 355 | 2.0 | 10.0 | 0.00 | 0.00 | 0.00 | 46 | 1015.5 |
| 20260902125107 | 91 | 351 | 3.0 | 10.0 | 0.00 | 0.00 | 0.00 | 47 | 1015.5 |
| 20260902125004 | 91 | 5 | 3.0 | 10.0 | 0.00 | 0.00 | 0.00 | 47 | 1015.5 |
| 20260902124905 | 91 | 32 | 7.0 | 10.0 | 0.00 | 0.00 | 0.00 | 46 | 1015.5 |
| 20260902124808 | 91 | 29 | 1.0 | 10.0 | 0.00 | 0.00 | 0.00 | 45 | 1015.6 |
| 20260902124704 | 91 | 360 | 4.0 | 10.0 | 0.00 | 0.00 | 0.00 | 47 | 1015.6 |
| 20260902124604 | 91 | 343 | 5.0 | 9.0 | 0.00 | 0.00 | 0.00 | 45 | 1015.6 |
| 20260902124509 | 92 | 28 | 3.0 | 9.0 | 0.00 | 0.00 | 0.00 | 45 | 1015.6 |
| 20260902124406 | 92 | 26 | 6.0 | 9.0 | 0.00 | 0.00 | 0.00 | 46 | 1015.6 |
| 20260902124303 | 92 | 292 | 0.0 | 9.0 | 0.00 | 0.00 | 0.00 | 46 | 1015.6 |
| 20260902124208 | 92 | 292 | 2.0 | 9.0 | 0.00 | 0.00 | 0.00 | 46 | 1015.7 |
| 20260902124103 | 92 | 292 | 1.0 | 9.0 | 0.00 | 0.00 | 0.00 | 45 | 1015.7 |
| 20260902123906 | 92 | 232 | 1.0 | 10.0 | 0.00 | 0.00 | 0.00 | 45 | 1015.7 |
| 20260902123804 | 92 | 249 | 4.0 | 10.0 | 0.00 | 0.00 | 0.00 | 46 | 1015.7 |
| 20260902123704 | 91 | 329 | 4.0 | 10.0 | 0.00 | 0.00 | 0.00 | 47 | 1015.8 |
| 20260902123608 | 91 | 39 | 4.0 | 10.0 | 0.00 | 0.00 | 0.00 | 48 | 1015.7 |
| 20260902123504 | 91 | 38 | 7.0 | 10.0 | 0.00 | 0.00 | 0.00 | 47 | 1015.8 |
| 20260902123307 | 91 | 17 | 5.0 | 10.0 | 0.00 | 0.00 | 0.00 | 46 | 1015.8 |
| 20260902123203 | 91 | 360 | 7.0 | 10.0 | 0.00 | 0.00 | 0.00 | 46 | 1015.8 |
| 20260902123105 | 91 | 39 | 4.0 | 10.0 | 0.00 | 0.00 | 0.00 | 46 | 1015.8 |
| 20260902123010 | 91 | 22 | 10.0 | 10.0 | 0.00 | 0.00 | 0.00 | 45 | 1015.8 |
| 20260902122904 | 91 | 355 | 4.0 | 7.0 | 0.00 | 0.00 | 0.00 | 47 | 1015.8 |
| 20260902122805 | 91 | 355 | 4.0 | 8.0 | 0.00 | 0.00 | 0.00 | 48 | 1015.9 |
| 20260902122706 | 91 | 10 | 6.0 | 8.0 | 0.00 | 0.00 | 0.00 | 46 | 1015.9 |
| 20260902122604 | 91 | 98 | 5.0 | 8.0 | 0.00 | 0.00 | 0.00 | 47 | 1015.9 |
| 20260902122506 | 91 | 42 | 5.0 | 8.0 | 0.00 | 0.00 | 0.00 | 47 | 1015.8 |
| 20260902122407 | 91 | 40 | 5.0 | 8.0 | 0.00 | 0.00 | 0.00 | 49 | 1015.9 |
| 20260902122305 | 91 | 87 | 1.0 | 8.0 | 0.00 | 0.00 | 0.00 | 49 | 1015.9 |
| 20260902122108 | 90 | 86 | 6.0 | 8.0 | 0.00 | 0.00 | 0.00 | 48 | 1016.0 |
| 20260902121904 | 90 | 30 | 4.0 | 8.0 | 0.00 | 0.00 | 0.00 | 49 | 1015.9 |
| 20260902121808 | 90 | 12 | 7.0 | 8.0 | 0.00 | 0.00 | 0.00 | 49 | 1016.0 |
| 20260902121704 | 90 | 309 | 3.0 | 8.0 | 0.00 | 0.00 | 0.00 | 49 | 1015.9 |
| 20260902121208 | 90 | 51 | 8.0 | 10.0 | 0.00 | 0.00 | 0.00 | 48 | 1016.0 |
| 20260902121106 | 90 | 9 | 2.0 | 10.0 | 0.00 | 0.00 | 0.00 | 49 | 1016.0 |
| 20260902121004 | 90 | 88 | 3.0 | 10.0 | 0.00 | 0.00 | 0.00 | 50 | 1016.0 |
| 20260902120907 | 90 | 157 | 2.0 | 10.0 | 0.00 | 0.00 | 0.00 | 49 | 1016.0 |
| 20260902120705 | 89 | 23 | 3.0 | 10.0 | 0.00 | 0.00 | 0.00 | 50 | 1016.1 |
| 20260902120406 | 90 | 63 | 7.0 | 10.0 | 0.00 | 0.00 | 0.00 | 48 | 1016.1 |
| 20260902120307 | 90 | 23 | 8.0 | 10.0 | 0.00 | 0.00 | 0.00 | 48 | 1016.0 |
| 20260902120134 | 90 | 14 | 9.0 | 10.0 | 0.00 | 0.00 | 0.00 | 50 | 1016.1 |
| 20260902115804 | 90 | 59 | 1.0 | 9.0 | 0.00 | 0.00 | 0.00 | 49 | 1016.2 |
| 20260902115605 | 90 | 81 | 5.0 | 9.0 | 0.00 | 0.00 | 0.00 | 48 | 1016.1 |
| 20260902115308 | 89 | 67 | 5.0 | 11.0 | 0.00 | 0.00 | 0.00 | 50 | 1016.1 |
| 20260902115205 | 89 | 32 | 2.0 | 11.0 | 0.00 | 0.00 | 0.00 | 52 | 1016.1 |
| 20260902115107 | 89 | 35 | 4.0 | 11.0 | 0.00 | 0.00 | 0.00 | 50 | 1016.1 |
| 20260902115006 | 89 | 78 | 3.0 | 11.0 | 0.00 | 0.00 | 0.00 | 49 | 1016.2 |
| 20260902114904 | 89 | 67 | 3.0 | 11.0 | 0.00 | 0.00 | 0.00 | 50 | 1016.1 |
| 20260902114806 | 89 | 55 | 5.0 | 11.0 | 0.00 | 0.00 | 0.00 | 50 | 1016.1 |
| 20260902114705 | 89 | 50 | 7.0 | 11.0 | 0.00 | 0.00 | 0.00 | 49 | 1016.1 |
| 20260902114604 | 89 | 32 | 5.0 | 11.0 | 0.00 | 0.00 | 0.00 | 49 | 1016.1 |
| 20260902114507 | 89 | 31 | 7.0 | 9.0 | 0.00 | 0.00 | 0.00 | 50 | 1016.1 |
| 20260902114304 | 89 | 32 | 5.0 | 8.0 | 0.00 | 0.00 | 0.00 | 51 | 1016.2 |
| 20260902114207 | 88 | 288 | 2.0 | 9.0 | 0.00 | 0.00 | 0.00 | 49 | 1016.2 |
| 20260902114107 | 88 | 284 | 1.0 | 10.0 | 0.00 | 0.00 | 0.00 | 50 | 1016.2 |
| 20260902114007 | 88 | 311 | 4.0 | 10.0 | 0.00 | 0.00 | 0.00 | 51 | 1016.2 |
| 20260902113907 | 88 | 355 | 5.0 | 10.0 | 0.00 | 0.00 | 0.00 | 51 | 1016.2 |
| 20260902113804 | 88 | 333 | 6.0 | 10.0 | 0.00 | 0.00 | 0.00 | 49 | 1016.2 |
| 20260902113705 | 88 | 26 | 4.0 | 10.0 | 0.00 | 0.00 | 0.00 | 49 | 1016.2 |
| 20260902113307 | 89 | 55 | 5.0 | 10.0 | 0.00 | 0.00 | 0.00 | 49 | 1016.2 |
| 20260902113204 | 89 | 28 | 7.0 | 10.0 | 0.00 | 0.00 | 0.00 | 51 | 1016.3 |
| 20260902113105 | 89 | 23 | 8.0 | 8.0 | 0.00 | 0.00 | 0.00 | 51 | 1016.3 |
| 20260902112905 | 88 | 42 | 2.0 | 7.0 | 0.00 | 0.00 | 0.00 | 51 | 1016.4 |
| 20260902112804 | 88 | 19 | 5.0 | 7.0 | 0.00 | 0.00 | 0.00 | 50 | 1016.4 |
| 20260902112505 | 88 | 281 | 1.0 | 5.0 | 0.00 | 0.00 | 0.00 | 50 | 1016.5 |
| 20260902112408 | 88 | 213 | 2.0 | 5.0 | 0.00 | 0.00 | 0.00 | 50 | 1016.4 |
| 20260902112306 | 88 | 186 | 1.0 | 7.0 | 0.00 | 0.00 | 0.00 | 51 | 1016.5 |
| 20260902112204 | 88 | 186 | 3.0 | 7.0 | 0.00 | 0.00 | 0.00 | 50 | 1016.5 |
| 20260902112107 | 88 | 225 | 3.0 | 7.0 | 0.00 | 0.00 | 0.00 | 50 | 1016.5 |
| 20260902112006 | 88 | 80 | 0.0 | 7.0 | 0.00 | 0.00 | 0.00 | 51 | 1016.5 |
| 20260902111904 | 88 | 80 | 1.0 | 7.0 | 0.00 | 0.00 | 0.00 | 51 | 1016.5 |
| 20260902111808 | 88 | 80 | 1.0 | 9.0 | 0.00 | 0.00 | 0.00 | 51 | 1016.6 |
| 20260902111704 | 88 | 128 | 2.0 | 9.0 | 0.00 | 0.00 | 0.00 | 51 | 1016.5 |
| 20260902111507 | 88 | 333 | 2.0 | 9.0 | 0.00 | 0.00 | 0.00 | 50 | 1016.6 |
| 20260902111405 | 88 | 342 | 2.0 | 9.0 | 0.00 | 0.00 | 0.00 | 51 | 1016.7 |
| 20260902111304 | 88 | 348 | 4.0 | 9.0 | 0.00 | 0.00 | 0.00 | 51 | 1016.7 |
| 20260902111104 | 88 | 17 | 5.0 | 9.0 | 0.00 | 0.00 | 0.00 | 49 | 1016.7 |
| 20260902110906 | 88 | 42 | 5.0 | 9.0 | 0.00 | 0.00 | 0.00 | 51 | 1016.7 |
| 20260902110805 | 88 | 34 | 7.0 | 9.0 | 0.00 | 0.00 | 0.00 | 51 | 1016.8 |
| 20260902110705 | 88 | 12 | 5.0 | 8.0 | 0.00 | 0.00 | 0.00 | 51 | 1016.7 |
| 20260902110607 | 88 | 355 | 8.0 | 8.0 | 0.00 | 0.00 | 0.00 | 51 | 1016.8 |
| 20260902110504 | 88 | 346 | 3.0 | 8.0 | 0.00 | 0.00 | 0.00 | 52 | 1016.8 |
| 20260902110406 | 88 | 360 | 5.0 | 7.0 | 0.00 | 0.00 | 0.00 | 52 | 1016.8 |
| 20260902110204 | 88 | 265 | 2.0 | 8.0 | 0.00 | 0.00 | 0.00 | 52 | 1016.8 |
| 20260902110108 | 87 | 292 | 4.0 | 8.0 | 0.00 | 0.00 | 0.00 | 52 | 1016.8 |
| 20260902110012 | 87 | 296 | 3.0 | 8.0 | 0.00 | 0.00 | 0.00 | 52 | 1016.8 |
| 20260902105905 | 87 | 304 | 2.0 | 9.0 | 0.00 | 0.00 | 0.00 | 54 | 1016.8 |
| 20260902105804 | 87 | 304 | 4.0 | 9.0 | 0.00 | 0.00 | 0.00 | 54 | 1016.9 |
| 20260902105604 | 87 | 22 | 3.0 | 9.0 | 0.00 | 0.00 | 0.00 | 51 | 1016.9 |
| 20260902105507 | 87 | 41 | 2.0 | 9.0 | 0.00 | 0.00 | 0.00 | 50 | 1016.9 |
| 20260902105408 | 87 | 42 | 6.0 | 9.0 | 0.00 | 0.00 | 0.00 | 50 | 1016.8 |
| 20260902105306 | 87 | 49 | 5.0 | 9.0 | 0.00 | 0.00 | 0.00 | 51 | 1016.8 |
| 20260902105204 | 87 | 28 | 6.0 | 9.0 | 0.00 | 0.00 | 0.00 | 51 | 1016.8 |
| 20260902105107 | 87 | 49 | 4.0 | 9.0 | 0.00 | 0.00 | 0.00 | 50 | 1016.8 |
| 20260902105005 | 88 | 41 | 7.0 | 9.0 | 0.00 | 0.00 | 0.00 | 51 | 1016.8 |
| 20260902104905 | 88 | 46 | 8.0 | 9.0 | 0.00 | 0.00 | 0.00 | 51 | 1016.8 |
| 20260902104807 | 88 | 15 | 3.0 | 10.0 | 0.00 | 0.00 | 0.00 | 51 | 1016.9 |
| 20260902104704 | 88 | 9 | 4.0 | 10.0 | 0.00 | 0.00 | 0.00 | 53 | 1016.9 |
| 20260902104604 | 88 | 329 | 4.0 | 10.0 | 0.00 | 0.00 | 0.00 | 52 | 1016.9 |
| 20260902104507 | 88 | 335 | 2.0 | 10.0 | 0.00 | 0.00 | 0.00 | 54 | 1016.9 |
| 20260902104405 | 87 | 44 | 0.0 | 10.0 | 0.00 | 0.00 | 0.00 | 54 | 1016.9 |
| 20260902104207 | 87 | 44 | 4.0 | 10.0 | 0.00 | 0.00 | 0.00 | 53 | 1016.9 |
| 20260902104104 | 88 | 82 | 2.0 | 10.0 | 0.00 | 0.00 | 0.00 | 53 | 1016.9 |
| 20260902104006 | 88 | 19 | 1.0 | 10.0 | 0.00 | 0.00 | 0.00 | 55 | 1017.0 |
| 20260902103907 | 88 | 347 | 5.0 | 10.0 | 0.00 | 0.00 | 0.00 | 55 | 1017.0 |
| 20260902103804 | 87 | 19 | 8.0 | 10.0 | 0.00 | 0.00 | 0.00 | 53 | 1016.9 |
| 20260902103607 | 87 | 17 | 8.0 | 10.0 | 0.00 | 0.00 | 0.00 | 55 | 1017.0 |
| 20260902103504 | 87 | 15 | 8.0 | 10.0 | 0.00 | 0.00 | 0.00 | 54 | 1017.0 |
| 20260902103307 | 87 | 30 | 8.0 | 10.0 | 0.00 | 0.00 | 0.00 | 54 | 1017.1 |
| 20260902103205 | 87 | 336 | 7.0 | 9.0 | 0.00 | 0.00 | 0.00 | 54 | 1017.1 |
| 20260902103104 | 87 | 302 | 2.0 | 9.0 | 0.00 | 0.00 | 0.00 | 56 | 1017.1 |
| 20260902103008 | 87 | 22 | 5.0 | 9.0 | 0.00 | 0.00 | 0.00 | 55 | 1017.1 |
| 20260902102905 | 87 | 311 | 2.0 | 9.0 | 0.00 | 0.00 | 0.00 | 54 | 1017.2 |
| 20260902102803 | 87 | 281 | 3.0 | 9.0 | 0.00 | 0.00 | 0.00 | 56 | 1017.2 |
| 20260902102604 | 87 | 316 | 7.0 | 9.0 | 0.00 | 0.00 | 0.00 | 54 | 1017.2 |
| 20260902102504 | 87 | 331 | 4.0 | 9.0 | 0.00 | 0.00 | 0.00 | 55 | 1017.2 |
| 20260902102406 | 87 | 319 | 7.0 | 10.0 | 0.00 | 0.00 | 0.00 | 56 | 1017.2 |
| 20260902102107 | 87 | 10 | 0.0 | 10.0 | 0.00 | 0.00 | 0.00 | 54 | 1017.2 |
| 20260902102005 | 87 | 32 | 4.0 | 10.0 | 0.00 | 0.00 | 0.00 | 54 | 1017.2 |
| 20260902101905 | 87 | 45 | 6.0 | 10.0 | 0.00 | 0.00 | 0.00 | 55 | 1017.2 |
| 20260902101807 | 87 | 360 | 7.0 | 10.0 | 0.00 | 0.00 | 0.00 | 55 | 1017.3 |
| 20260902101703 | 87 | 355 | 6.0 | 10.0 | 0.00 | 0.00 | 0.00 | 55 | 1017.3 |
| 20260902101605 | 86 | 294 | 4.0 | 10.0 | 0.00 | 0.00 | 0.00 | 57 | 1017.3 |
| 20260902101405 | 86 | 360 | 5.0 | 10.0 | 0.00 | 0.00 | 0.00 | 56 | 1017.3 |
| 20260902101304 | 86 | 360 | 5.0 | 10.0 | 0.00 | 0.00 | 0.00 | 57 | 1017.2 |
| 20260902101207 | 86 | 340 | 9.0 | 9.0 | 0.00 | 0.00 | 0.00 | 58 | 1017.3 |
| 20260902101103 | 86 | 345 | 5.0 | 9.0 | 0.00 | 0.00 | 0.00 | 57 | 1017.2 |
| 20260902100907 | 86 | 333 | 7.0 | 9.0 | 0.00 | 0.00 | 0.00 | 58 | 1017.3 |
| 20260902100804 | 86 | 350 | 1.0 | 8.0 | 0.00 | 0.00 | 0.00 | 58 | 1017.3 |
| 20260902100607 | 86 | 252 | 1.0 | 9.0 | 0.00 | 0.00 | 0.00 | 59 | 1017.2 |
| 20260902100504 | 86 | 244 | 4.0 | 9.0 | 0.00 | 0.00 | 0.00 | 60 | 1017.3 |
| 20260902100307 | 86 | 298 | 2.0 | 9.0 | 0.00 | 0.00 | 0.00 | 60 | 1017.2 |
| 20260902100204 | 86 | 311 | 6.0 | 9.0 | 0.00 | 0.00 | 0.00 | 61 | 1017.3 |
| 20260902100119 | 85 | 302 | 4.0 | 9.0 | 0.00 | 0.00 | 0.00 | 59 | 1017.3 |
| 20260902100011 | 85 | 271 | 3.0 | 9.0 | 0.00 | 0.00 | 0.00 | 60 | 1017.3 |
| 20260902095803 | 85 | 340 | 3.0 | 9.0 | 0.00 | 0.00 | 0.00 | 60 | 1017.3 |
| 20260902095604 | 86 | 288 | 2.0 | 9.0 | 0.00 | 0.00 | 0.00 | 60 | 1017.3 |
| 20260902095407 | 86 | 256 | 6.0 | 9.0 | 0.00 | 0.00 | 0.00 | 61 | 1017.3 |
| 20260902095307 | 86 | 287 | 5.0 | 9.0 | 0.00 | 0.00 | 0.00 | 59 | 1017.4 |
| 20260902095205 | 86 | 269 | 3.0 | 9.0 | 0.00 | 0.00 | 0.00 | 60 | 1017.4 |
| 20260902095107 | 86 | 284 | 4.0 | 9.0 | 0.00 | 0.00 | 0.00 | 60 | 1017.4 |
| 20260902095005 | 86 | 286 | 4.0 | 10.0 | 0.00 | 0.00 | 0.00 | 61 | 1017.5 |
| 20260902094904 | 86 | 334 | 7.0 | 10.0 | 0.00 | 0.00 | 0.00 | 61 | 1017.4 |
| 20260902094807 | 85 | 263 | 4.0 | 10.0 | 0.00 | 0.00 | 0.00 | 64 | 1017.4 |
| 20260902094705 | 85 | 350 | 2.0 | 10.0 | 0.00 | 0.00 | 0.00 | 64 | 1017.4 |
| 20260902094605 | 85 | 29 | 7.0 | 10.0 | 0.00 | 0.00 | 0.00 | 63 | 1017.4 |
| 20260902094508 | 85 | 347 | 6.0 | 10.0 | 0.00 | 0.00 | 0.00 | 62 | 1017.4 |
| 20260902094404 | 85 | 300 | 2.0 | 10.0 | 0.00 | 0.00 | 0.00 | 62 | 1017.4 |
| 20260902094305 | 85 | 292 | 1.0 | 10.0 | 0.00 | 0.00 | 0.00 | 62 | 1017.4 |
| 20260902094206 | 85 | 292 | 1.0 | 10.0 | 0.00 | 0.00 | 0.00 | 63 | 1017.5 |
| 20260902094104 | 85 | 289 | 5.0 | 10.0 | 0.00 | 0.00 | 0.00 | 63 | 1017.4 |
| 20260902094005 | 85 | 313 | 4.0 | 9.0 | 0.00 | 0.00 | 0.00 | 63 | 1017.4 |
| 20260902093907 | 85 | 260 | 5.0 | 9.0 | 0.00 | 0.00 | 0.00 | 62 | 1017.4 |
| 20260902093803 | 85 | 259 | 4.0 | 9.0 | 0.00 | 0.00 | 0.00 | 62 | 1017.4 |
| 20260902093704 | 85 | 281 | 7.0 | 9.0 | 0.00 | 0.00 | 0.00 | 61 | 1017.4 |
| 20260902093607 | 85 | 317 | 3.0 | 9.0 | 0.00 | 0.00 | 0.00 | 62 | 1017.4 |
| 20260902093403 | 85 | 348 | 6.0 | 9.0 | 0.00 | 0.00 | 0.00 | 63 | 1017.5 |
| 20260902093205 | 85 | 338 | 9.0 | 10.0 | 0.00 | 0.00 | 0.00 | 63 | 1017.5 |
| 20260902093104 | 85 | 334 | 7.0 | 10.0 | 0.00 | 0.00 | 0.00 | 63 | 1017.5 |
| 20260902093008 | 85 | 284 | 3.0 | 10.0 | 0.00 | 0.00 | 0.00 | 63 | 1017.5 |
| 20260902092904 | 85 | 287 | 7.0 | 10.0 | 0.00 | 0.00 | 0.00 | 63 | 1017.5 |
| 20260902092804 | 85 | 337 | 6.0 | 10.0 | 0.00 | 0.00 | 0.00 | 63 | 1017.5 |
| 20260902092707 | 86 | 301 | 5.0 | 10.0 | 0.00 | 0.00 | 0.00 | 62 | 1017.5 |
| 20260902092605 | 86 | 267 | 5.0 | 10.0 | 0.00 | 0.00 | 0.00 | 63 | 1017.5 |
| 20260902092504 | 86 | 291 | 8.0 | 10.0 | 0.00 | 0.00 | 0.00 | 62 | 1017.5 |
| 20260902092407 | 86 | 355 | 9.0 | 10.0 | 0.00 | 0.00 | 0.00 | 61 | 1017.5 |
| 20260902092204 | 86 | 322 | 4.0 | 11.0 | 0.00 | 0.00 | 0.00 | 64 | 1017.5 |
| 20260902092107 | 86 | 360 | 6.0 | 11.0 | 0.00 | 0.00 | 0.00 | 64 | 1017.4 |
| 20260902092005 | 85 | 347 | 6.0 | 11.0 | 0.00 | 0.00 | 0.00 | 62 | 1017.5 |
| 20260902091905 | 85 | 360 | 7.0 | 11.0 | 0.00 | 0.00 | 0.00 | 63 | 1017.4 |
| 20260902091807 | 85 | 331 | 3.0 | 11.0 | 0.00 | 0.00 | 0.00 | 63 | 1017.5 |
| 20260902091705 | 85 | 351 | 4.0 | 11.0 | 0.00 | 0.00 | 0.00 | 63 | 1017.4 |
| 20260902091604 | 85 | 316 | 7.0 | 11.0 | 0.00 | 0.00 | 0.00 | 62 | 1017.4 |
| 20260902091508 | 85 | 331 | 4.0 | 11.0 | 0.00 | 0.00 | 0.00 | 62 | 1017.5 |
| 20260902091404 | 85 | 319 | 8.0 | 11.0 | 0.00 | 0.00 | 0.00 | 64 | 1017.5 |
| 20260902091304 | 85 | 297 | 5.0 | 11.0 | 0.00 | 0.00 | 0.00 | 63 | 1017.4 |
| 20260902091206 | 85 | 355 | 10.0 | 12.0 | 0.00 | 0.00 | 0.00 | 62 | 1017.4 |
| 20260902091105 | 85 | 349 | 6.0 | 12.0 | 0.00 | 0.00 | 0.00 | 63 | 1017.4 |
| 20260902091004 | 85 | 355 | 6.0 | 12.0 | 0.00 | 0.00 | 0.00 | 63 | 1017.4 |
| 20260902090908 | 85 | 355 | 4.0 | 12.0 | 0.00 | 0.00 | 0.00 | 62 | 1017.4 |
| 20260902090804 | 85 | 360 | 7.0 | 12.0 | 0.00 | 0.00 | 0.00 | 63 | 1017.4 |
| 20260902090703 | 84 | 355 | 8.0 | 12.0 | 0.00 | 0.00 | 0.00 | 63 | 1017.4 |
| 20260902090607 | 84 | 329 | 7.0 | 12.0 | 0.00 | 0.00 | 0.00 | 63 | 1017.4 |
| 20260902090404 | 84 | 290 | 8.0 | 12.0 | 0.00 | 0.00 | 0.00 | 63 | 1017.4 |
| 20260902090306 | 84 | 321 | 7.0 | 12.0 | 0.00 | 0.00 | 0.00 | 64 | 1017.4 |
| 20260902090205 | 84 | 5 | 7.0 | 12.0 | 0.00 | 0.00 | 0.00 | 64 | 1017.4 |
| 20260902090104 | 84 | 360 | 10.0 | 11.0 | 0.00 | 0.00 | 0.00 | 65 | 1017.4 |
| 20260902090011 | 83 | 355 | 7.0 | 11.0 | 0.00 | 0.00 | 0.00 | 63 | 1017.4 |
| 20260902085904 | 83 | 339 | 4.0 | 11.0 | 0.00 | 0.00 | 0.00 | 63 | 1017.4 |
| 20260902085804 | 83 | 279 | 2.0 | 11.0 | 0.00 | 0.00 | 0.00 | 63 | 1017.4 |
| 20260902085706 | 83 | 286 | 4.0 | 11.0 | 0.00 | 0.00 | 0.00 | 64 | 1017.4 |
| 20260902085504 | 83 | 290 | 5.0 | 11.0 | 0.00 | 0.00 | 0.00 | 64 | 1017.4 |
| 20260902085407 | 83 | 319 | 6.0 | 11.0 | 0.00 | 0.00 | 0.00 | 65 | 1017.3 |
| 20260902085306 | 83 | 330 | 7.0 | 11.0 | 0.00 | 0.00 | 0.00 | 64 | 1017.4 |
| 20260902085005 | 82 | 315 | 5.0 | 9.0 | 0.00 | 0.00 | 0.00 | 64 | 1017.4 |
| 20260902084905 | 82 | 293 | 2.0 | 9.0 | 0.00 | 0.00 | 0.00 | 64 | 1017.4 |
| 20260902084807 | 82 | 293 | 5.0 | 9.0 | 0.00 | 0.00 | 0.00 | 64 | 1017.4 |
| 20260902084704 | 82 | 277 | 3.0 | 10.0 | 0.00 | 0.00 | 0.00 | 62 | 1017.4 |
| 20260902084604 | 83 | 269 | 4.0 | 10.0 | 0.00 | 0.00 | 0.00 | 62 | 1017.4 |
| 20260902084508 | 83 | 272 | 6.0 | 10.0 | 0.00 | 0.00 | 0.00 | 63 | 1017.3 |
| 20260902084404 | 83 | 298 | 3.0 | 10.0 | 0.00 | 0.00 | 0.00 | 64 | 1017.3 |
| 20260902084304 | 83 | 298 | 4.0 | 10.0 | 0.00 | 0.00 | 0.00 | 65 | 1017.3 |
| 20260902084208 | 82 | 334 | 6.0 | 10.0 | 0.00 | 0.00 | 0.00 | 66 | 1017.3 |
| 20260902084105 | 82 | 319 | 8.0 | 10.0 | 0.00 | 0.00 | 0.00 | 65 | 1017.3 |
| 20260902084006 | 82 | 317 | 5.0 | 10.0 | 0.00 | 0.00 | 0.00 | 63 | 1017.3 |
| 20260902083907 | 82 | 270 | 6.0 | 10.0 | 0.00 | 0.00 | 0.00 | 63 | 1017.3 |
| 20260902083704 | 82 | 275 | 7.0 | 9.0 | 0.00 | 0.00 | 0.00 | 63 | 1017.3 |
| 20260902083607 | 82 | 290 | 3.0 | 9.0 | 0.00 | 0.00 | 0.00 | 63 | 1017.3 |
| 20260902083403 | 82 | 324 | 6.0 | 9.0 | 0.00 | 0.00 | 0.00 | 63 | 1017.3 |
| 20260902083307 | 82 | 300 | 3.0 | 9.0 | 0.00 | 0.00 | 0.00 | 64 | 1017.3 |
| 20260902083203 | 82 | 317 | 7.0 | 9.0 | 0.00 | 0.00 | 0.00 | 63 | 1017.3 |
| 20260902083008 | 82 | 300 | 7.0 | 9.0 | 0.00 | 0.00 | 0.00 | 63 | 1017.3 |
| 20260902082804 | 82 | 300 | 7.0 | 11.0 | 0.00 | 0.00 | 0.00 | 64 | 1017.2 |
| 20260902082707 | 82 | 301 | 5.0 | 11.0 | 0.00 | 0.00 | 0.00 | 64 | 1017.2 |
| 20260902082605 | 81 | 322 | 6.0 | 11.0 | 0.00 | 0.00 | 0.00 | 64 | 1017.2 |
| 20260902082504 | 81 | 318 | 3.0 | 11.0 | 0.00 | 0.00 | 0.00 | 64 | 1017.2 |
| 20260902082407 | 81 | 317 | 5.0 | 11.0 | 0.00 | 0.00 | 0.00 | 63 | 1017.2 |
| 20260902082309 | 81 | 279 | 4.0 | 11.0 | 0.00 | 0.00 | 0.00 | 63 | 1017.2 |
| 20260902082204 | 81 | 299 | 6.0 | 11.0 | 0.00 | 0.00 | 0.00 | 63 | 1017.2 |
| 20260902082107 | 81 | 316 | 4.0 | 11.0 | 0.00 | 0.00 | 0.00 | 63 | 1017.1 |
| 20260902082005 | 82 | 288 | 5.0 | 11.0 | 0.00 | 0.00 | 0.00 | 62 | 1017.1 |
| 20260902081905 | 82 | 281 | 11.0 | 11.0 | 0.00 | 0.00 | 0.00 | 63 | 1017.2 |
| 20260902081807 | 82 | 322 | 4.0 | 11.0 | 0.00 | 0.00 | 0.00 | 63 | 1017.1 |
| 20260902081705 | 82 | 298 | 9.0 | 11.0 | 0.00 | 0.00 | 0.00 | 63 | 1017.1 |
| 20260902081605 | 81 | 298 | 4.0 | 11.0 | 0.00 | 0.00 | 0.00 | 63 | 1017.2 |
| 20260902081506 | 81 | 315 | 9.0 | 11.0 | 0.00 | 0.00 | 0.00 | 63 | 1017.1 |
| 20260902081403 | 81 | 355 | 7.0 | 11.0 | 0.00 | 0.00 | 0.00 | 63 | 1017.1 |
| 20260902081304 | 81 | 328 | 3.0 | 11.0 | 0.00 | 0.00 | 0.00 | 63 | 1017.1 |
| 20260902081207 | 81 | 338 | 1.0 | 11.0 | 0.00 | 0.00 | 0.00 | 64 | 1017.1 |
| 20260902081103 | 81 | 300 | 7.0 | 11.0 | 0.00 | 0.00 | 0.00 | 64 | 1017.1 |
| 20260902081004 | 81 | 319 | 10.0 | 10.0 | 0.00 | 0.00 | 0.00 | 64 | 1017.1 |
| 20260902080907 | 81 | 319 | 5.0 | 10.0 | 0.00 | 0.00 | 0.00 | 64 | 1017.1 |
| 20260902080705 | 80 | 355 | 7.0 | 10.0 | 0.00 | 0.00 | 0.00 | 64 | 1017.1 |
| 20260902080607 | 80 | 348 | 7.0 | 10.0 | 0.00 | 0.00 | 0.00 | 64 | 1017.1 |
| 20260902080505 | 80 | 317 | 6.0 | 10.0 | 0.00 | 0.00 | 0.00 | 64 | 1017.1 |
| 20260902080404 | 80 | 321 | 5.0 | 10.0 | 0.00 | 0.00 | 0.00 | 63 | 1017.1 |
| 20260902080307 | 80 | 333 | 3.0 | 10.0 | 0.00 | 0.00 | 0.00 | 63 | 1017.1 |
| 20260902080120 | 80 | 281 | 3.0 | 10.0 | 0.00 | 0.00 | 0.00 | 64 | 1017.1 |
| 20260902080011 | 80 | 303 | 3.0 | 10.0 | 0.00 | 0.00 | 0.00 | 64 | 1017.1 |
| 20260902075904 | 80 | 338 | 7.0 | 10.0 | 0.00 | 0.00 | 0.00 | 63 | 1017.1 |
| 20260902075804 | 80 | 264 | 1.0 | 10.0 | 0.00 | 0.00 | 0.00 | 64 | 1017.1 |
| 20260902075706 | 80 | 312 | 5.0 | 10.0 | 0.00 | 0.00 | 0.00 | 64 | 1017.0 |
| 20260902075604 | 80 | 292 | 5.0 | 10.0 | 0.00 | 0.00 | 0.00 | 64 | 1017.0 |
| 20260902075408 | 80 | 321 | 6.0 | 10.0 | 0.00 | 0.00 | 0.00 | 64 | 1017.0 |
| 20260902075306 | 80 | 319 | 7.0 | 11.0 | 0.00 | 0.00 | 0.00 | 64 | 1017.0 |
| 20260902075205 | 80 | 331 | 6.0 | 11.0 | 0.00 | 0.00 | 0.00 | 64 | 1017.0 |
| 20260902075106 | 80 | 277 | 7.0 | 11.0 | 0.00 | 0.00 | 0.00 | 64 | 1017.0 |
| 20260902075004 | 79 | 278 | 6.0 | 11.0 | 0.00 | 0.00 | 0.00 | 64 | 1017.0 |
| 20260902074904 | 79 | 305 | 7.0 | 11.0 | 0.00 | 0.00 | 0.00 | 63 | 1017.0 |
| 20260902074604 | 79 | 282 | 4.0 | 11.0 | 0.00 | 0.00 | 0.00 | 61 | 1017.0 |
| 20260902074507 | 79 | 294 | 2.0 | 11.0 | 0.00 | 0.00 | 0.00 | 62 | 1017.0 |
| 20260902074404 | 79 | 334 | 5.0 | 11.0 | 0.00 | 0.00 | 0.00 | 63 | 1017.0 |
| 20260902074306 | 79 | 339 | 8.0 | 10.0 | 0.00 | 0.00 | 0.00 | 62 | 1017.0 |
| 20260902074221 | 79 | 288 | 3.0 | 10.0 | 0.00 | 0.00 | 0.00 | 62 | 1017.0 |
| 20260902074004 | 79 | 333 | 9.0 | 9.0 | 0.00 | 0.00 | 0.00 | 61 | 1016.9 |
| 20260902073904 | 79 | 295 | 7.0 | 9.0 | 0.00 | 0.00 | 0.00 | 61 | 1017.0 |
| 20260902073704 | 79 | 278 | 8.0 | 9.0 | 0.00 | 0.00 | 0.00 | 60 | 1017.0 |
| 20260902073604 | 79 | 286 | 6.0 | 9.0 | 0.00 | 0.00 | 0.00 | 60 | 1017.0 |
| 20260902073507 | 79 | 269 | 7.0 | 9.0 | 0.00 | 0.00 | 0.00 | 60 | 1017.0 |
| 20260902073404 | 79 | 295 | 6.0 | 10.0 | 0.00 | 0.00 | 0.00 | 61 | 1016.9 |
| 20260902073206 | 79 | 326 | 7.0 | 10.0 | 0.00 | 0.00 | 0.00 | 60 | 1016.9 |
| 20260902073104 | 79 | 267 | 6.0 | 10.0 | 0.00 | 0.00 | 0.00 | 62 | 1016.9 |
| 20260902073004 | 79 | 318 | 6.0 | 10.0 | 0.00 | 0.00 | 0.00 | 61 | 1016.9 |
| 20260902072804 | 78 | 347 | 3.0 | 10.0 | 0.00 | 0.00 | 0.00 | 61 | 1016.8 |
| 20260902072704 | 78 | 301 | 6.0 | 10.0 | 0.00 | 0.00 | 0.00 | 62 | 1016.8 |
| 20260902072606 | 78 | 306 | 6.0 | 10.0 | 0.00 | 0.00 | 0.00 | 62 | 1016.8 |
| 20260902072404 | 78 | 296 | 6.0 | 10.0 | 0.00 | 0.00 | 0.00 | 62 | 1016.9 |
| 20260902072309 | 78 | 322 | 5.0 | 6.0 | 0.00 | 0.00 | 0.00 | 61 | 1016.8 |
| 20260902072204 | 78 | 290 | 2.0 | 6.0 | 0.00 | 0.00 | 0.00 | 61 | 1016.8 |
| 20260902072104 | 78 | 290 | 4.0 | 6.0 | 0.00 | 0.00 | 0.00 | 61 | 1016.8 |
| 20260902072008 | 78 | 269 | 3.0 | 6.0 | 0.00 | 0.00 | 0.00 | 60 | 1016.8 |
| 20260902071903 | 78 | 277 | 1.0 | 6.0 | 0.00 | 0.00 | 0.00 | 60 | 1016.8 |
| 20260902071804 | 78 | 276 | 4.0 | 6.0 | 0.00 | 0.00 | 0.00 | 61 | 1016.8 |
| 20260902071605 | 78 | 267 | 2.0 | 6.0 | 0.00 | 0.00 | 0.00 | 61 | 1016.8 |
| 20260902071407 | 78 | 336 | 3.0 | 6.0 | 0.00 | 0.00 | 0.00 | 61 | 1016.8 |
| 20260902071304 | 78 | 286 | 3.0 | 6.0 | 0.00 | 0.00 | 0.00 | 61 | 1016.8 |
| 20260902071203 | 78 | 296 | 2.0 | 6.0 | 0.00 | 0.00 | 0.00 | 60 | 1016.8 |
| 20260902071006 | 78 | 286 | 4.0 | 5.0 | 0.00 | 0.00 | 0.00 | 59 | 1016.8 |
| 20260902070905 | 78 | 265 | 2.0 | 4.0 | 0.00 | 0.00 | 0.00 | 59 | 1016.8 |
| 20260902070704 | 77 | 283 | 3.0 | 4.0 | 0.00 | 0.00 | 0.00 | 60 | 1016.8 |
| 20260902070604 | 77 | 346 | 2.0 | 4.0 | 0.00 | 0.00 | 0.00 | 62 | 1016.8 |
| 20260902070506 | 77 | 320 | 3.0 | 4.0 | 0.00 | 0.00 | 0.00 | 61 | 1016.8 |
| 20260902070404 | 77 | 340 | 3.0 | 3.0 | 0.00 | 0.00 | 0.00 | 62 | 1016.8 |
| 20260902070303 | 77 | 331 | 1.0 | 3.0 | 0.00 | 0.00 | 0.00 | 61 | 1016.8 |
| 20260902070206 | 77 | 331 | 3.0 | 3.0 | 0.00 | 0.00 | 0.00 | 61 | 1016.8 |
| 20260902070103 | 77 | 317 | 2.0 | 3.0 | 0.00 | 0.00 | 0.00 | 61 | 1016.7 |
| 20260902065804 | 76 | 355 | 2.0 | 3.0 | 0.00 | 0.00 | 0.00 | 62 | 1016.7 |
| 20260902065606 | 76 | 351 | 1.0 | 3.0 | 0.00 | 0.00 | 0.00 | 61 | 1016.7 |
| 20260902065504 | 76 | 5 | 1.0 | 3.0 | 0.00 | 0.00 | 0.00 | 62 | 1016.7 |
| 20260902065404 | 75 | 38 | 1.0 | 1.0 | 0.00 | 0.00 | 0.00 | 63 | 1016.7 |
| 20260902065307 | 75 | 38 | 0.0 | 0.0 | 0.00 | 0.00 | 0.00 | 63 | 1016.7 |
| 20260902065203 | 75 | 38 | 0.0 | 0.0 | 0.00 | 0.00 | 0.00 | 63 | 1016.7 |
| 20260902065103 | 75 | 38 | 0.0 | 0.0 | 0.00 | 0.00 | 0.00 | 63 | 1016.7 |
| 20260902065009 | 75 | 38 | 0.0 | 0.0 | 0.00 | 0.00 | 0.00 | 63 | 1016.7 |
| 20260902064903 | 75 | 38 | 0.0 | 0.0 | 0.00 | 0.00 | 0.00 | 63 | 1016.7 |
| 20260902064706 | 75 | 38 | 0.0 | 1.0 | 0.00 | 0.00 | 0.00 | 65 | 1016.7 |
| 20260902064604 | 75 | 38 | 0.0 | 1.0 | 0.00 | 0.00 | 0.00 | 65 | 1016.6 |
| 20260902064406 | 75 | 38 | 0.0 | 1.0 | 0.00 | 0.00 | 0.00 | 65 | 1016.6 |
| 20260902064303 | 74 | 38 | 0.0 | 1.0 | 0.00 | 0.00 | 0.00 | 66 | 1016.6 |
| 20260902064204 | 74 | 38 | 0.0 | 1.0 | 0.00 | 0.00 | 0.00 | 65 | 1016.6 |
| 20260902064107 | 74 | 38 | 0.0 | 1.0 | 0.00 | 0.00 | 0.00 | 64 | 1016.6 |
| 20260902063904 | 74 | 38 | 0.0 | 2.0 | 0.00 | 0.00 | 0.00 | 65 | 1016.6 |
| 20260902063807 | 74 | 38 | 1.0 | 2.0 | 0.00 | 0.00 | 0.00 | 66 | 1016.6 |
| 20260902063704 | 74 | 38 | 1.0 | 2.0 | 0.00 | 0.00 | 0.00 | 66 | 1016.6 |
| 20260902063604 | 73 | 38 | 1.0 | 2.0 | 0.00 | 0.00 | 0.00 | 65 | 1016.7 |
| 20260902063508 | 73 | 38 | 0.0 | 2.0 | 0.00 | 0.00 | 0.00 | 66 | 1016.7 |
| 20260902063403 | 73 | 38 | 0.0 | 2.0 | 0.00 | 0.00 | 0.00 | 66 | 1016.7 |
| 20260902063304 | 73 | 38 | 0.0 | 2.0 | 0.00 | 0.00 | 0.00 | 66 | 1016.7 |
| 20260902063206 | 73 | 38 | 0.0 | 2.0 | 0.00 | 0.00 | 0.00 | 67 | 1016.7 |
| 20260902063005 | 72 | 38 | 1.0 | 2.0 | 0.00 | 0.00 | 0.00 | 68 | 1016.7 |
| 20260902062906 | 72 | 38 | 1.0 | 2.0 | 0.00 | 0.00 | 0.00 | 68 | 1016.7 |
| 20260902062805 | 72 | 38 | 0.0 | 2.0 | 0.00 | 0.00 | 0.00 | 68 | 1016.6 |
| 20260902062703 | 72 | 38 | 0.0 | 2.0 | 0.00 | 0.00 | 0.00 | 68 | 1016.6 |
| 20260902062606 | 72 | 38 | 1.0 | 2.0 | 0.00 | 0.00 | 0.00 | 68 | 1016.6 |
| 20260902062504 | 72 | 38 | 1.0 | 2.0 | 0.00 | 0.00 | 0.00 | 68 | 1016.6 |
| 20260902062403 | 72 | 38 | 0.0 | 2.0 | 0.00 | 0.00 | 0.00 | 68 | 1016.6 |
| 20260902062306 | 72 | 38 | 0.0 | 2.0 | 0.00 | 0.00 | 0.00 | 68 | 1016.7 |
| 20260902062204 | 72 | 38 | 0.0 | 3.0 | 0.00 | 0.00 | 0.00 | 68 | 1016.7 |
| 20260902062103 | 71 | 38 | 0.0 | 3.0 | 0.00 | 0.00 | 0.00 | 68 | 1016.7 |
| 20260902062008 | 71 | 38 | 1.0 | 3.0 | 0.00 | 0.00 | 0.00 | 69 | 1016.7 |
| 20260902061905 | 71 | 38 | 0.0 | 3.0 | 0.00 | 0.00 | 0.00 | 69 | 1016.7 |
| 20260902061706 | 71 | 38 | 1.0 | 3.0 | 0.00 | 0.00 | 0.00 | 69 | 1016.7 |
| 20260902061604 | 71 | 38 | 1.0 | 3.0 | 0.00 | 0.00 | 0.00 | 69 | 1016.7 |
| 20260902061504 | 71 | 38 | 1.0 | 3.0 | 0.00 | 0.00 | 0.00 | 69 | 1016.7 |
| 20260902061407 | 71 | 38 | 1.0 | 3.0 | 0.00 | 0.00 | 0.00 | 69 | 1016.7 |
| 20260902061108 | 70 | 38 | 1.0 | 2.0 | 0.00 | 0.00 | 0.00 | 70 | 1016.7 |
| 20260902060904 | 70 | 38 | 1.0 | 4.0 | 0.00 | 0.00 | 0.00 | 70 | 1016.7 |
| 20260902060604 | 70 | 38 | 2.0 | 4.0 | 0.00 | 0.00 | 0.00 | 71 | 1016.7 |
| 20260902060405 | 69 | 38 | 2.0 | 4.0 | 0.00 | 0.00 | 0.00 | 71 | 1016.7 |
| 20260902060304 | 69 | 38 | 1.0 | 4.0 | 0.00 | 0.00 | 0.00 | 71 | 1016.7 |
| 20260902060208 | 69 | 38 | 2.0 | 4.0 | 0.00 | 0.00 | 0.00 | 72 | 1016.7 |
| 20260902060116 | 69 | 38 | 1.0 | 4.0 | 0.00 | 0.00 | 0.00 | 72 | 1016.7 |
| 20260902060007 | 69 | 38 | 2.0 | 4.0 | 0.00 | 0.00 | 0.00 | 73 | 1016.7 |
| 20260902055906 | 68 | 38 | 3.0 | 4.0 | 0.00 | 0.00 | 0.00 | 73 | 1016.7 |
| 20260902055704 | 68 | 38 | 2.0 | 2.0 | 0.00 | 0.00 | 0.00 | 74 | 1016.7 |
| 20260902055607 | 68 | 38 | 1.0 | 2.0 | 0.00 | 0.00 | 0.00 | 75 | 1016.7 |
| 20260902055404 | 67 | 38 | 0.0 | 2.0 | 0.00 | 0.00 | 0.00 | 77 | 1016.7 |
| 20260902055307 | 67 | 38 | 0.0 | 2.0 | 0.00 | 0.00 | 0.00 | 77 | 1016.7 |
| 20260902055203 | 67 | 38 | 0.0 | 3.0 | 0.00 | 0.00 | 0.00 | 78 | 1016.6 |
| 20260902055104 | 67 | 38 | 0.0 | 3.0 | 0.00 | 0.00 | 0.00 | 78 | 1016.6 |
| 20260902055008 | 67 | 38 | 0.0 | 3.0 | 0.00 | 0.00 | 0.00 | 78 | 1016.6 |
| 20260902054903 | 66 | 38 | 0.0 | 3.0 | 0.00 | 0.00 | 0.00 | 79 | 1016.6 |
| 20260902054804 | 66 | 38 | 0.0 | 3.0 | 0.00 | 0.00 | 0.00 | 79 | 1016.7 |
| 20260902054707 | 66 | 38 | 0.0 | 3.0 | 0.00 | 0.00 | 0.00 | 79 | 1016.6 |
| 20260902054406 | 65 | 38 | 1.0 | 3.0 | 0.00 | 0.00 | 0.00 | 80 | 1016.6 |
| 20260902054305 | 65 | 38 | 2.0 | 3.0 | 0.00 | 0.00 | 0.00 | 81 | 1016.6 |
| 20260902054203 | 65 | 38 | 2.0 | 3.0 | 0.00 | 0.00 | 0.00 | 81 | 1016.6 |
| 20260902054106 | 65 | 38 | 2.0 | 3.0 | 0.00 | 0.00 | 0.00 | 82 | 1016.5 |
| 20260902054005 | 65 | 38 | 2.0 | 3.0 | 0.00 | 0.00 | 0.00 | 83 | 1016.5 |
| 20260902053704 | 64 | 38 | 1.0 | 3.0 | 0.00 | 0.00 | 0.00 | 84 | 1016.5 |
| 20260902053603 | 64 | 38 | 2.0 | 3.0 | 0.00 | 0.00 | 0.00 | 84 | 1016.6 |
| 20260902053304 | 64 | 38 | 2.0 | 3.0 | 0.00 | 0.00 | 0.00 | 85 | 1016.6 |
| 20260902053207 | 64 | 38 | 1.0 | 3.0 | 0.00 | 0.00 | 0.00 | 85 | 1016.5 |
| 20260902053103 | 64 | 38 | 2.0 | 3.0 | 0.00 | 0.00 | 0.00 | 85 | 1016.5 |
| 20260902053004 | 64 | 38 | 1.0 | 3.0 | 0.00 | 0.00 | 0.00 | 85 | 1016.5 |
| 20260902052906 | 64 | 38 | 2.0 | 3.0 | 0.00 | 0.00 | 0.00 | 85 | 1016.5 |
| 20260902052804 | 64 | 38 | 2.0 | 3.0 | 0.00 | 0.00 | 0.00 | 85 | 1016.6 |
| 20260902052704 | 64 | 38 | 2.0 | 3.0 | 0.00 | 0.00 | 0.00 | 85 | 1016.5 |
| 20260902052504 | 64 | 38 | 1.0 | 3.0 | 0.00 | 0.00 | 0.00 | 86 | 1016.5 |
| 20260902052403 | 63 | 38 | 1.0 | 3.0 | 0.00 | 0.00 | 0.00 | 85 | 1016.5 |
| 20260902052103 | 63 | 38 | 2.0 | 3.0 | 0.00 | 0.00 | 0.00 | 85 | 1016.5 |
| 20260902052007 | 63 | 38 | 2.0 | 3.0 | 0.00 | 0.00 | 0.00 | 85 | 1016.5 |
| 20260902051904 | 63 | 38 | 1.0 | 3.0 | 0.00 | 0.00 | 0.00 | 85 | 1016.5 |
| 20260902051804 | 63 | 38 | 2.0 | 3.0 | 0.00 | 0.00 | 0.00 | 86 | 1016.4 |
| 20260902051706 | 63 | 38 | 2.0 | 3.0 | 0.00 | 0.00 | 0.00 | 86 | 1016.5 |
| 20260902051604 | 63 | 38 | 3.0 | 3.0 | 0.00 | 0.00 | 0.00 | 86 | 1016.5 |
| 20260902051504 | 63 | 38 | 3.0 | 3.0 | 0.00 | 0.00 | 0.00 | 86 | 1016.4 |
| 20260902051406 | 63 | 38 | 2.0 | 3.0 | 0.00 | 0.00 | 0.00 | 86 | 1016.4 |
| 20260902051303 | 63 | 38 | 2.0 | 3.0 | 0.00 | 0.00 | 0.00 | 86 | 1016.4 |
| 20260902051204 | 63 | 38 | 2.0 | 3.0 | 0.00 | 0.00 | 0.00 | 86 | 1016.4 |
| 20260902051107 | 63 | 38 | 1.0 | 4.0 | 0.00 | 0.00 | 0.00 | 86 | 1016.4 |
| 20260902051004 | 63 | 38 | 1.0 | 4.0 | 0.00 | 0.00 | 0.00 | 85 | 1016.3 |
| 20260902050905 | 63 | 38 | 1.0 | 4.0 | 0.00 | 0.00 | 0.00 | 85 | 1016.4 |
| 20260902050806 | 63 | 37 | 2.0 | 4.0 | 0.00 | 0.00 | 0.00 | 85 | 1016.3 |
| 20260902050703 | 63 | 38 | 2.0 | 5.0 | 0.00 | 0.00 | 0.00 | 85 | 1016.4 |
| 20260902050604 | 63 | 38 | 2.0 | 5.0 | 0.00 | 0.00 | 0.00 | 85 | 1016.3 |
| 20260902050506 | 63 | 38 | 2.0 | 5.0 | 0.00 | 0.00 | 0.00 | 85 | 1016.3 |
| 20260902050403 | 63 | 38 | 3.0 | 5.0 | 0.00 | 0.00 | 0.00 | 85 | 1016.3 |
| 20260902050208 | 63 | 38 | 3.0 | 5.0 | 0.00 | 0.00 | 0.00 | 86 | 1016.3 |
| 20260902050103 | 63 | 38 | 3.0 | 5.0 | 0.00 | 0.00 | 0.00 | 86 | 1016.3 |
| 20260902050008 | 63 | 38 | 3.0 | 5.0 | 0.00 | 0.00 | 0.00 | 86 | 1016.3 |
| 20260902045906 | 63 | 38 | 4.0 | 5.0 | 0.00 | 0.00 | 0.00 | 86 | 1016.3 |
| 20260902045803 | 62 | 36 | 4.0 | 5.0 | 0.00 | 0.00 | 0.00 | 86 | 1016.3 |
| 20260902045703 | 62 | 36 | 4.0 | 5.0 | 0.00 | 0.00 | 0.00 | 86 | 1016.3 |
| 20260902045606 | 62 | 35 | 5.0 | 5.0 | 0.00 | 0.00 | 0.00 | 87 | 1016.3 |
| 20260902045504 | 62 | 31 | 4.0 | 5.0 | 0.00 | 0.00 | 0.00 | 88 | 1016.3 |
| 20260902045403 | 62 | 34 | 4.0 | 4.0 | 0.00 | 0.00 | 0.00 | 88 | 1016.3 |
| 20260902045205 | 62 | 26 | 0.0 | 0.0 | 0.00 | 0.00 | 0.00 | 89 | 1016.3 |
| 20260902045007 | 62 | 20 | 0.0 | 0.0 | 0.00 | 0.00 | 0.00 | 89 | 1016.3 |
| 20260902044904 | 62 | 20 | 0.0 | 0.0 | 0.00 | 0.00 | 0.00 | 89 | 1016.3 |
| 20260902044803 | 61 | 20 | 0.0 | 0.0 | 0.00 | 0.00 | 0.00 | 89 | 1016.2 |
| 20260902044706 | 61 | 20 | 0.0 | 0.0 | 0.00 | 0.00 | 0.00 | 89 | 1016.3 |
| 20260902044604 | 61 | 143 | 0.0 | 0.0 | 0.00 | 0.00 | 0.00 | 89 | 1016.2 |
| 20260902044407 | 61 | 143 | 0.0 | 0.0 | 0.00 | 0.00 | 0.00 | 89 | 1016.2 |
| 20260902044304 | 61 | 143 | 0.0 | 0.0 | 0.00 | 0.00 | 0.00 | 89 | 1016.2 |
| 20260902044107 | 61 | 143 | 0.0 | 0.0 | 0.00 | 0.00 | 0.00 | 89 | 1016.2 |
| 20260902043904 | 61 | 143 | 0.0 | 0.0 | 0.00 | 0.00 | 0.00 | 89 | 1016.2 |
| 20260902043704 | 62 | 143 | 0.0 | 0.0 | 0.00 | 0.00 | 0.00 | 89 | 1016.2 |
| 20260902043604 | 61 | 143 | 0.0 | 0.0 | 0.00 | 0.00 | 0.00 | 89 | 1016.2 |
| 20260902043507 | 61 | 143 | 0.0 | 0.0 | 0.00 | 0.00 | 0.00 | 89 | 1016.2 |
| 20260902043403 | 62 | 143 | 0.0 | 0.0 | 0.00 | 0.00 | 0.00 | 89 | 1016.2 |
| 20260902043304 | 62 | 143 | 0.0 | 0.0 | 0.00 | 0.00 | 0.00 | 89 | 1016.3 |
| 20260902043207 | 62 | 143 | 0.0 | 0.0 | 0.00 | 0.00 | 0.00 | 89 | 1016.2 |
| 20260902043104 | 62 | 143 | 0.0 | 0.0 | 0.00 | 0.00 | 0.00 | 89 | 1016.3 |
| 20260902043004 | 62 | 143 | 0.0 | 0.0 | 0.00 | 0.00 | 0.00 | 89 | 1016.3 |
| 20260902042907 | 62 | 143 | 0.0 | 0.0 | 0.00 | 0.00 | 0.00 | 88 | 1016.2 |
| 20260902042703 | 62 | 142 | 0.0 | 0.0 | 0.00 | 0.00 | 0.00 | 88 | 1016.2 |
| 20260902042606 | 62 | 142 | 0.0 | 0.0 | 0.00 | 0.00 | 0.00 | 88 | 1016.3 |
| 20260902042504 | 62 | 142 | 0.0 | 0.0 | 0.00 | 0.00 | 0.00 | 88 | 1016.3 |
| 20260902042403 | 62 | 142 | 0.0 | 0.0 | 0.00 | 0.00 | 0.00 | 88 | 1016.2 |
| 20260902042309 | 62 | 142 | 0.0 | 0.0 | 0.00 | 0.00 | 0.00 | 88 | 1016.2 |
| 20260902042204 | 62 | 142 | 0.0 | 0.0 | 0.00 | 0.00 | 0.00 | 88 | 1016.2 |
| 20260902042103 | 62 | 142 | 0.0 | 0.0 | 0.00 | 0.00 | 0.00 | 88 | 1016.2 |
| 20260902042009 | 62 | 142 | 0.0 | 0.0 | 0.00 | 0.00 | 0.00 | 88 | 1016.2 |
| 20260902041804 | 62 | 186 | 0.0 | 0.0 | 0.00 | 0.00 | 0.00 | 88 | 1016.2 |
| 20260902041706 | 62 | 186 | 0.0 | 0.0 | 0.00 | 0.00 | 0.00 | 88 | 1016.2 |
| 20260902041603 | 62 | 186 | 0.0 | 0.0 | 0.00 | 0.00 | 0.00 | 88 | 1016.2 |
| 20260902041504 | 62 | 227 | 0.0 | 0.0 | 0.00 | 0.00 | 0.00 | 87 | 1016.3 |
| 20260902041406 | 62 | 227 | 0.0 | 0.0 | 0.00 | 0.00 | 0.00 | 87 | 1016.3 |
| 20260902041304 | 62 | 227 | 0.0 | 1.0 | 0.00 | 0.00 | 0.00 | 88 | 1016.3 |
| 20260902041204 | 62 | 227 | 0.0 | 2.0 | 0.00 | 0.00 | 0.00 | 88 | 1016.3 |
| 20260902041106 | 62 | 227 | 0.0 | 2.0 | 0.00 | 0.00 | 0.00 | 88 | 1016.3 |
| 20260902040903 | 62 | 227 | 0.0 | 2.0 | 0.00 | 0.00 | 0.00 | 87 | 1016.3 |
| 20260902040806 | 62 | 227 | 0.0 | 2.0 | 0.00 | 0.00 | 0.00 | 89 | 1016.3 |
| 20260902040703 | 62 | 238 | 0.0 | 3.0 | 0.00 | 0.00 | 0.00 | 89 | 1016.2 |
| 20260902040603 | 62 | 238 | 0.0 | 3.0 | 0.00 | 0.00 | 0.00 | 89 | 1016.3 |
| 20260902040506 | 62 | 238 | 0.0 | 3.0 | 0.00 | 0.00 | 0.00 | 87 | 1016.2 |
| 20260902040404 | 62 | 238 | 0.0 | 3.0 | 0.00 | 0.00 | 0.00 | 87 | 1016.2 |
| 20260902040304 | 62 | 238 | 0.0 | 3.0 | 0.00 | 0.00 | 0.00 | 87 | 1016.2 |
| 20260902040211 | 62 | 238 | 1.0 | 3.0 | 0.00 | 0.00 | 0.00 | 87 | 1016.2 |
| 20260902040117 | 62 | 238 | 1.0 | 3.0 | 0.00 | 0.00 | 0.00 | 87 | 1016.2 |
| 20260902040007 | 62 | 238 | 0.0 | 3.0 | 0.00 | 0.00 | 0.00 | 87 | 1016.2 |
| 20260902035906 | 62 | 238 | 0.0 | 3.0 | 0.00 | 0.00 | 0.00 | 87 | 1016.2 |
| 20260902035704 | 62 | 238 | 2.0 | 3.0 | 0.00 | 0.00 | 0.00 | 87 | 1016.2 |
| 20260902035504 | 62 | 233 | 2.0 | 3.0 | 0.00 | 0.00 | 0.00 | 87 | 1016.2 |
| 20260902035404 | 62 | 233 | 3.0 | 3.0 | 0.00 | 0.00 | 0.00 | 87 | 1016.1 |
| 20260902035306 | 62 | 257 | 3.0 | 3.0 | 0.00 | 0.00 | 0.00 | 87 | 1016.2 |
| 20260902035203 | 62 | 257 | 2.0 | 3.0 | 0.00 | 0.00 | 0.00 | 86 | 1016.2 |
| 20260902035103 | 62 | 259 | 2.0 | 3.0 | 0.00 | 0.00 | 0.00 | 86 | 1016.2 |
| 20260902035008 | 62 | 259 | 1.0 | 3.0 | 0.00 | 0.00 | 0.00 | 86 | 1016.2 |
| 20260902034904 | 62 | 259 | 2.0 | 3.0 | 0.00 | 0.00 | 0.00 | 86 | 1016.2 |
| 20260902034803 | 63 | 259 | 2.0 | 3.0 | 0.00 | 0.00 | 0.00 | 86 | 1016.2 |
| 20260902034706 | 63 | 260 | 1.0 | 3.0 | 0.00 | 0.00 | 0.00 | 86 | 1016.2 |
| 20260902034603 | 63 | 259 | 1.0 | 3.0 | 0.00 | 0.00 | 0.00 | 86 | 1016.2 |
| 20260902034504 | 63 | 259 | 2.0 | 3.0 | 0.00 | 0.00 | 0.00 | 86 | 1016.2 |
| 20260902034406 | 63 | 260 | 2.0 | 3.0 | 0.00 | 0.00 | 0.00 | 86 | 1016.2 |
| 20260902034303 | 63 | 198 | 2.0 | 3.0 | 0.00 | 0.00 | 0.00 | 86 | 1016.2 |
| 20260902034203 | 63 | 198 | 2.0 | 3.0 | 0.00 | 0.00 | 0.00 | 85 | 1016.1 |
| 20260902034107 | 63 | 198 | 2.0 | 2.0 | 0.00 | 0.00 | 0.00 | 85 | 1016.1 |
| 20260902034004 | 63 | 198 | 0.0 | 2.0 | 0.00 | 0.00 | 0.00 | 85 | 1016.1 |
| 20260902033806 | 63 | 198 | 0.0 | 2.0 | 0.00 | 0.00 | 0.00 | 85 | 1016.1 |
| 20260902033704 | 63 | 198 | 0.0 | 3.0 | 0.00 | 0.00 | 0.00 | 85 | 1016.1 |
| 20260902033507 | 63 | 198 | 0.0 | 3.0 | 0.00 | 0.00 | 0.00 | 85 | 1016.2 |
| 20260902033405 | 63 | 198 | 1.0 | 3.0 | 0.00 | 0.00 | 0.00 | 85 | 1016.1 |
| 20260902033303 | 63 | 198 | 1.0 | 3.0 | 0.00 | 0.00 | 0.00 | 85 | 1016.1 |
| 20260902033206 | 63 | 198 | 1.0 | 3.0 | 0.00 | 0.00 | 0.00 | 85 | 1016.2 |
| 20260902033103 | 63 | 198 | 0.0 | 3.0 | 0.00 | 0.00 | 0.00 | 85 | 1016.2 |
| 20260902033004 | 63 | 198 | 1.0 | 3.0 | 0.00 | 0.00 | 0.00 | 85 | 1016.2 |
| 20260902032906 | 63 | 198 | 2.0 | 3.0 | 0.00 | 0.00 | 0.00 | 85 | 1016.2 |
| 20260902032804 | 63 | 198 | 2.0 | 3.0 | 0.00 | 0.00 | 0.00 | 85 | 1016.2 |
| 20260902032704 | 63 | 198 | 2.0 | 3.0 | 0.00 | 0.00 | 0.00 | 85 | 1016.2 |
| 20260902032606 | 63 | 198 | 3.0 | 3.0 | 0.00 | 0.00 | 0.00 | 85 | 1016.2 |
| 20260902032504 | 63 | 198 | 2.0 | 3.0 | 0.00 | 0.00 | 0.00 | 85 | 1016.2 |
| 20260902032404 | 63 | 198 | 3.0 | 3.0 | 0.00 | 0.00 | 0.00 | 84 | 1016.2 |
| 20260902032103 | 63 | 198 | 1.0 | 3.0 | 0.00 | 0.00 | 0.00 | 85 | 1016.3 |
| 20260902032007 | 63 | 198 | 0.0 | 3.0 | 0.00 | 0.00 | 0.00 | 85 | 1016.3 |
| 20260902031903 | 63 | 198 | 0.0 | 4.0 | 0.00 | 0.00 | 0.00 | 85 | 1016.3 |
| 20260902031804 | 63 | 198 | 1.0 | 5.0 | 0.00 | 0.00 | 0.00 | 85 | 1016.3 |
| 20260902031706 | 63 | 198 | 0.0 | 5.0 | 0.00 | 0.00 | 0.00 | 85 | 1016.3 |
| 20260902031603 | 63 | 198 | 1.0 | 6.0 | 0.00 | 0.00 | 0.00 | 85 | 1016.3 |
| 20260902031406 | 63 | 198 | 1.0 | 6.0 | 0.00 | 0.00 | 0.00 | 85 | 1016.3 |
| 20260902031304 | 63 | 198 | 0.0 | 6.0 | 0.00 | 0.00 | 0.00 | 84 | 1016.3 |
| 20260902031204 | 63 | 198 | 1.0 | 6.0 | 0.00 | 0.00 | 0.00 | 84 | 1016.2 |
| 20260902031106 | 63 | 198 | 2.0 | 6.0 | 0.00 | 0.00 | 0.00 | 85 | 1016.2 |
| 20260902031005 | 63 | 198 | 3.0 | 6.0 | 0.00 | 0.00 | 0.00 | 85 | 1016.2 |
| 20260902030904 | 63 | 198 | 3.0 | 6.0 | 0.00 | 0.00 | 0.00 | 85 | 1016.2 |
| 20260902030806 | 63 | 198 | 4.0 | 6.0 | 0.00 | 0.00 | 0.00 | 85 | 1016.2 |
| 20260902030704 | 63 | 198 | 5.0 | 6.0 | 0.00 | 0.00 | 0.00 | 85 | 1016.2 |
| 20260902030506 | 63 | 198 | 6.0 | 6.0 | 0.00 | 0.00 | 0.00 | 85 | 1016.2 |
| 20260902030404 | 63 | 198 | 5.0 | 6.0 | 0.00 | 0.00 | 0.00 | 86 | 1016.2 |
| 20260902030303 | 63 | 196 | 5.0 | 6.0 | 0.00 | 0.00 | 0.00 | 86 | 1016.2 |
| 20260902030207 | 62 | 196 | 5.0 | 6.0 | 0.00 | 0.00 | 0.00 | 86 | 1016.2 |
| 20260902030104 | 62 | 197 | 4.0 | 6.0 | 0.00 | 0.00 | 0.00 | 86 | 1016.2 |
| 20260902030008 | 62 | 197 | 4.0 | 6.0 | 0.00 | 0.00 | 0.00 | 86 | 1016.2 |
| 20260902025906 | 62 | 197 | 4.0 | 6.0 | 0.00 | 0.00 | 0.00 | 86 | 1016.2 |
| 20260902025803 | 62 | 197 | 4.0 | 6.0 | 0.00 | 0.00 | 0.00 | 86 | 1016.1 |
| 20260902025703 | 62 | 197 | 4.0 | 6.0 | 0.00 | 0.00 | 0.00 | 86 | 1016.1 |
| 20260902025606 | 62 | 197 | 4.0 | 6.0 | 0.00 | 0.00 | 0.00 | 86 | 1016.1 |
| 20260902025504 | 62 | 196 | 4.0 | 6.0 | 0.00 | 0.00 | 0.00 | 86 | 1016.1 |
| 20260902025307 | 62 | 199 | 5.0 | 6.0 | 0.00 | 0.00 | 0.00 | 87 | 1016.1 |
| 20260902025103 | 62 | 202 | 5.0 | 6.0 | 0.00 | 0.00 | 0.00 | 87 | 1016.1 |
| 20260902025007 | 62 | 203 | 6.0 | 6.0 | 0.00 | 0.00 | 0.00 | 87 | 1016.1 |
| 20260902024903 | 62 | 203 | 5.0 | 6.0 | 0.00 | 0.00 | 0.00 | 88 | 1016.1 |
| 20260902024803 | 62 | 203 | 5.0 | 6.0 | 0.00 | 0.00 | 0.00 | 88 | 1016.1 |
| 20260902024706 | 62 | 204 | 5.0 | 5.0 | 0.00 | 0.00 | 0.00 | 88 | 1016.1 |
| 20260902024603 | 62 | 204 | 5.0 | 5.0 | 0.00 | 0.00 | 0.00 | 88 | 1016.2 |
| 20260902024504 | 62 | 209 | 4.0 | 5.0 | 0.00 | 0.00 | 0.00 | 89 | 1016.2 |
| 20260902024406 | 62 | 211 | 4.0 | 5.0 | 0.00 | 0.00 | 0.00 | 89 | 1016.2 |
| 20260902024303 | 62 | 218 | 5.0 | 5.0 | 0.00 | 0.00 | 0.00 | 89 | 1016.2 |
| 20260902024203 | 62 | 218 | 4.0 | 5.0 | 0.00 | 0.00 | 0.00 | 89 | 1016.2 |
| 20260902024107 | 62 | 218 | 5.0 | 5.0 | 0.00 | 0.00 | 0.00 | 89 | 1016.1 |
| 20260902024004 | 62 | 224 | 4.0 | 5.0 | 0.00 | 0.00 | 0.00 | 89 | 1016.2 |
| 20260902023904 | 62 | 224 | 4.0 | 5.0 | 0.00 | 0.00 | 0.00 | 90 | 1016.1 |
| 20260902023806 | 62 | 223 | 4.0 | 5.0 | 0.00 | 0.00 | 0.00 | 90 | 1016.1 |
| 20260902023703 | 62 | 225 | 4.0 | 5.0 | 0.00 | 0.00 | 0.00 | 90 | 1016.1 |
| 20260902023604 | 62 | 229 | 4.0 | 5.0 | 0.00 | 0.00 | 0.00 | 90 | 1016.2 |
| 20260902023506 | 62 | 231 | 4.0 | 5.0 | 0.00 | 0.00 | 0.00 | 90 | 1016.1 |
| 20260902023403 | 62 | 229 | 2.0 | 5.0 | 0.00 | 0.00 | 0.00 | 91 | 1016.1 |
| 20260902023304 | 62 | 229 | 3.0 | 5.0 | 0.00 | 0.00 | 0.00 | 91 | 1016.2 |
| 20260902023208 | 62 | 229 | 4.0 | 5.0 | 0.00 | 0.00 | 0.00 | 91 | 1016.2 |
| 20260902023105 | 62 | 223 | 3.0 | 5.0 | 0.00 | 0.00 | 0.00 | 91 | 1016.1 |
| 20260902023005 | 62 | 219 | 5.0 | 5.0 | 0.00 | 0.00 | 0.00 | 91 | 1016.1 |
| 20260902022907 | 62 | 224 | 4.0 | 5.0 | 0.00 | 0.00 | 0.00 | 91 | 1016.1 |
| 20260902022803 | 62 | 227 | 4.0 | 5.0 | 0.00 | 0.00 | 0.00 | 91 | 1016.1 |
| 20260902022704 | 62 | 226 | 5.0 | 5.0 | 0.00 | 0.00 | 0.00 | 92 | 1016.1 |
| 20260902022606 | 62 | 227 | 4.0 | 6.0 | 0.00 | 0.00 | 0.00 | 92 | 1016.1 |
| 20260902022504 | 62 | 227 | 3.0 | 6.0 | 0.00 | 0.00 | 0.00 | 92 | 1016.1 |
| 20260902022403 | 62 | 203 | 3.0 | 6.0 | 0.00 | 0.00 | 0.00 | 92 | 1016.0 |
| 20260902022306 | 62 | 203 | 4.0 | 6.0 | 0.00 | 0.00 | 0.00 | 92 | 1016.0 |
| 20260902022105 | 62 | 196 | 4.0 | 6.0 | 0.00 | 0.00 | 0.00 | 92 | 1016.1 |
| 20260902022008 | 62 | 196 | 4.0 | 6.0 | 0.00 | 0.00 | 0.00 | 92 | 1016.1 |
| 20260902021904 | 62 | 196 | 4.0 | 6.0 | 0.00 | 0.00 | 0.00 | 92 | 1016.0 |
| 20260902021804 | 62 | 196 | 4.0 | 6.0 | 0.00 | 0.00 | 0.00 | 92 | 1016.1 |
| 20260902021706 | 62 | 196 | 5.0 | 6.0 | 0.00 | 0.00 | 0.00 | 92 | 1016.1 |
| 20260902021503 | 62 | 191 | 4.0 | 6.0 | 0.00 | 0.00 | 0.00 | 92 | 1016.0 |
| 20260902021406 | 62 | 189 | 6.0 | 6.0 | 0.00 | 0.00 | 0.00 | 92 | 1016.0 |
| 20260902021304 | 62 | 192 | 5.0 | 7.0 | 0.00 | 0.00 | 0.00 | 92 | 1016.0 |
| 20260902021204 | 62 | 196 | 5.0 | 7.0 | 0.00 | 0.00 | 0.00 | 93 | 1016.0 |
| 20260902021106 | 62 | 193 | 6.0 | 7.0 | 0.00 | 0.00 | 0.00 | 93 | 1016.0 |
| 20260902021004 | 62 | 196 | 6.0 | 7.0 | 0.00 | 0.00 | 0.00 | 93 | 1016.0 |
| 20260902020903 | 62 | 195 | 5.0 | 7.0 | 0.00 | 0.00 | 0.00 | 93 | 1016.1 |
| 20260902020806 | 62 | 202 | 6.0 | 7.0 | 0.00 | 0.00 | 0.00 | 93 | 1016.0 |
| 20260902020704 | 62 | 204 | 5.0 | 7.0 | 0.00 | 0.00 | 0.00 | 93 | 1016.0 |
| 20260902020603 | 62 | 204 | 5.0 | 7.0 | 0.00 | 0.00 | 0.00 | 93 | 1016.1 |
| 20260902020506 | 62 | 211 | 6.0 | 7.0 | 0.00 | 0.00 | 0.00 | 93 | 1016.1 |
| 20260902020405 | 62 | 206 | 5.0 | 7.0 | 0.00 | 0.00 | 0.00 | 93 | 1016.1 |
| 20260902020303 | 62 | 206 | 6.0 | 7.0 | 0.00 | 0.00 | 0.00 | 93 | 1016.1 |
| 20260902020206 | 62 | 200 | 5.0 | 6.0 | 0.00 | 0.00 | 0.00 | 93 | 1016.1 |
| 20260902020128 | 62 | 200 | 6.0 | 6.0 | 0.00 | 0.00 | 0.00 | 93 | 1016.1 |
| 20260902015906 | 62 | 200 | 6.0 | 6.0 | 0.00 | 0.00 | 0.00 | 93 | 1016.1 |
| 20260902015804 | 62 | 201 | 6.0 | 6.0 | 0.00 | 0.00 | 0.00 | 93 | 1016.1 |
| 20260902015503 | 62 | 218 | 5.0 | 6.0 | 0.00 | 0.00 | 0.00 | 93 | 1016.1 |
| 20260902015404 | 62 | 218 | 5.0 | 6.0 | 0.00 | 0.00 | 0.00 | 92 | 1016.2 |
| 20260902015307 | 62 | 218 | 4.0 | 6.0 | 0.00 | 0.00 | 0.00 | 92 | 1016.2 |
| 20260902015205 | 62 | 218 | 5.0 | 6.0 | 0.00 | 0.00 | 0.00 | 92 | 1016.1 |
| 20260902015104 | 62 | 218 | 5.0 | 6.0 | 0.00 | 0.00 | 0.00 | 92 | 1016.1 |
| 20260902015007 | 62 | 218 | 5.0 | 6.0 | 0.00 | 0.00 | 0.00 | 92 | 1016.1 |
| 20260902014903 | 62 | 218 | 4.0 | 6.0 | 0.00 | 0.00 | 0.00 | 92 | 1016.1 |
| 20260902014803 | 62 | 218 | 5.0 | 6.0 | 0.00 | 0.00 | 0.00 | 92 | 1016.1 |
| 20260902014706 | 62 | 218 | 4.0 | 5.0 | 0.00 | 0.00 | 0.00 | 92 | 1016.1 |
| 20260902014603 | 62 | 218 | 4.0 | 5.0 | 0.00 | 0.00 | 0.00 | 92 | 1016.1 |
| 20260902014504 | 62 | 218 | 4.0 | 5.0 | 0.00 | 0.00 | 0.00 | 92 | 1016.1 |
| 20260902014407 | 62 | 233 | 4.0 | 5.0 | 0.00 | 0.00 | 0.00 | 92 | 1016.1 |
| 20260902014303 | 62 | 233 | 4.0 | 5.0 | 0.00 | 0.00 | 0.00 | 92 | 1016.2 |
| 20260902014204 | 62 | 233 | 3.0 | 5.0 | 0.00 | 0.00 | 0.00 | 92 | 1016.2 |
| 20260902014005 | 62 | 233 | 3.0 | 5.0 | 0.00 | 0.00 | 0.00 | 92 | 1016.3 |
| 20260902013903 | 62 | 233 | 3.0 | 5.0 | 0.00 | 0.00 | 0.00 | 92 | 1016.3 |
| 20260902013703 | 62 | 233 | 4.0 | 5.0 | 0.00 | 0.00 | 0.00 | 92 | 1016.3 |
| 20260902013604 | 62 | 233 | 4.0 | 5.0 | 0.00 | 0.00 | 0.00 | 92 | 1016.3 |
| 20260902013506 | 62 | 233 | 3.0 | 5.0 | 0.00 | 0.00 | 0.00 | 92 | 1016.3 |
| 20260902013403 | 62 | 233 | 4.0 | 5.0 | 0.00 | 0.00 | 0.00 | 92 | 1016.3 |
| 20260902013304 | 62 | 233 | 3.0 | 5.0 | 0.00 | 0.00 | 0.00 | 92 | 1016.3 |
| 20260902013206 | 62 | 233 | 4.0 | 5.0 | 0.00 | 0.00 | 0.00 | 92 | 1016.3 |
| 20260902013104 | 62 | 233 | 5.0 | 5.0 | 0.00 | 0.00 | 0.00 | 92 | 1016.3 |
| 20260902013004 | 62 | 233 | 4.0 | 5.0 | 0.00 | 0.00 | 0.00 | 92 | 1016.3 |
| 20260902012907 | 62 | 233 | 5.0 | 5.0 | 0.00 | 0.00 | 0.00 | 92 | 1016.3 |
| 20260902012804 | 62 | 233 | 3.0 | 4.0 | 0.00 | 0.00 | 0.00 | 92 | 1016.2 |
| 20260902012703 | 63 | 233 | 3.0 | 4.0 | 0.00 | 0.00 | 0.00 | 92 | 1016.2 |
| 20260902012606 | 63 | 233 | 3.0 | 4.0 | 0.00 | 0.00 | 0.00 | 92 | 1016.2 |
| 20260902012504 | 63 | 233 | 3.0 | 4.0 | 0.00 | 0.00 | 0.00 | 92 | 1016.2 |
| 20260902012309 | 63 | 233 | 3.0 | 4.0 | 0.00 | 0.00 | 0.00 | 92 | 1016.2 |
| 20260902012203 | 63 | 233 | 2.0 | 4.0 | 0.00 | 0.00 | 0.00 | 92 | 1016.1 |
| 20260902012103 | 63 | 233 | 3.0 | 4.0 | 0.00 | 0.00 | 0.00 | 92 | 1016.1 |
| 20260902012007 | 63 | 233 | 3.0 | 4.0 | 0.00 | 0.00 | 0.00 | 92 | 1016.1 |
| 20260902011903 | 63 | 233 | 4.0 | 4.0 | 0.00 | 0.00 | 0.00 | 92 | 1016.1 |
| 20260902011803 | 63 | 233 | 2.0 | 4.0 | 0.00 | 0.00 | 0.00 | 92 | 1016.2 |
| 20260902011706 | 63 | 233 | 3.0 | 4.0 | 0.00 | 0.00 | 0.00 | 92 | 1016.2 |
| 20260902011603 | 63 | 233 | 3.0 | 4.0 | 0.00 | 0.00 | 0.00 | 92 | 1016.1 |
| 20260902011503 | 63 | 233 | 4.0 | 4.0 | 0.00 | 0.00 | 0.00 | 92 | 1016.1 |
| 20260902011407 | 63 | 233 | 3.0 | 4.0 | 0.00 | 0.00 | 0.00 | 92 | 1016.1 |
| 20260902011304 | 63 | 233 | 3.0 | 4.0 | 0.00 | 0.00 | 0.00 | 92 | 1016.1 |
| 20260902011204 | 63 | 233 | 2.0 | 4.0 | 0.00 | 0.00 | 0.00 | 92 | 1016.1 |
| 20260902011005 | 63 | 233 | 2.0 | 4.0 | 0.00 | 0.00 | 0.00 | 92 | 1016.1 |
| 20260902010903 | 63 | 233 | 2.0 | 4.0 | 0.00 | 0.00 | 0.00 | 92 | 1016.1 |
| 20260902010806 | 63 | 233 | 3.0 | 3.0 | 0.00 | 0.00 | 0.00 | 92 | 1016.1 |
| 20260902010704 | 63 | 233 | 1.0 | 3.0 | 0.00 | 0.00 | 0.00 | 92 | 1016.1 |
| 20260902010507 | 63 | 233 | 2.0 | 3.0 | 0.00 | 0.00 | 0.00 | 92 | 1016.1 |
| 20260902010403 | 63 | 233 | 2.0 | 3.0 | 0.00 | 0.00 | 0.00 | 92 | 1016.1 |
| 20260902010303 | 63 | 233 | 2.0 | 3.0 | 0.00 | 0.00 | 0.00 | 92 | 1016.1 |
| 20260902010206 | 63 | 233 | 1.0 | 3.0 | 0.00 | 0.00 | 0.00 | 92 | 1016.2 |
| 20260902010105 | 63 | 233 | 2.0 | 3.0 | 0.00 | 0.00 | 0.00 | 92 | 1016.1 |
| 20260902010006 | 63 | 233 | 2.0 | 3.0 | 0.00 | 0.00 | 0.00 | 92 | 1016.2 |
| 20260902005803 | 63 | 233 | 2.0 | 3.0 | 0.00 | 0.00 | 0.00 | 92 | 1016.1 |
| 20260902005704 | 63 | 233 | 1.0 | 3.0 | 0.00 | 0.00 | 0.00 | 92 | 1016.1 |
| 20260902005606 | 63 | 233 | 2.0 | 3.0 | 0.00 | 0.00 | 0.00 | 92 | 1016.1 |
| 20260902005503 | 63 | 233 | 1.0 | 3.0 | 0.00 | 0.00 | 0.00 | 92 | 1016.1 |
| 20260902005306 | 63 | 233 | 2.0 | 3.0 | 0.00 | 0.00 | 0.00 | 92 | 1016.1 |
| 20260902005204 | 63 | 233 | 2.0 | 3.0 | 0.00 | 0.00 | 0.00 | 92 | 1016.1 |
| 20260902005104 | 63 | 233 | 3.0 | 3.0 | 0.00 | 0.00 | 0.00 | 92 | 1016.1 |
| 20260902005007 | 63 | 233 | 1.0 | 3.0 | 0.00 | 0.00 | 0.00 | 92 | 1016.1 |
| 20260902004803 | 63 | 233 | 3.0 | 3.0 | 0.00 | 0.00 | 0.00 | 91 | 1016.1 |
| 20260902004706 | 63 | 233 | 2.0 | 3.0 | 0.00 | 0.00 | 0.00 | 92 | 1016.1 |
| 20260902004603 | 63 | 233 | 2.0 | 3.0 | 0.00 | 0.00 | 0.00 | 92 | 1016.1 |
| 20260902004503 | 63 | 233 | 3.0 | 3.0 | 0.00 | 0.00 | 0.00 | 91 | 1016.0 |
| 20260902004303 | 63 | 233 | 1.0 | 3.0 | 0.00 | 0.00 | 0.00 | 91 | 1016.0 |
| 20260902004203 | 63 | 233 | 2.0 | 3.0 | 0.00 | 0.00 | 0.00 | 91 | 1016.0 |
| 20260902004005 | 63 | 228 | 2.0 | 3.0 | 0.00 | 0.00 | 0.00 | 91 | 1016.0 |
| 20260902003903 | 63 | 228 | 1.0 | 3.0 | 0.00 | 0.00 | 0.00 | 91 | 1016.0 |
| 20260902003806 | 63 | 228 | 2.0 | 3.0 | 0.00 | 0.00 | 0.00 | 91 | 1015.9 |
| 20260902003703 | 63 | 228 | 2.0 | 3.0 | 0.00 | 0.00 | 0.00 | 91 | 1015.9 |
| 20260902003603 | 63 | 228 | 2.0 | 3.0 | 0.00 | 0.00 | 0.00 | 91 | 1015.9 |
| 20260902003506 | 63 | 228 | 0.0 | 3.0 | 0.00 | 0.00 | 0.00 | 91 | 1015.9 |
| 20260902003404 | 63 | 228 | 0.0 | 3.0 | 0.00 | 0.00 | 0.00 | 91 | 1016.0 |
| 20260902003206 | 64 | 228 | 2.0 | 3.0 | 0.00 | 0.00 | 0.00 | 91 | 1016.0 |
| 20260902003105 | 64 | 228 | 1.0 | 4.0 | 0.00 | 0.00 | 0.00 | 91 | 1015.9 |
| 20260902003007 | 64 | 228 | 0.0 | 4.0 | 0.00 | 0.00 | 0.00 | 91 | 1015.9 |
| 20260902002906 | 64 | 228 | 0.0 | 4.0 | 0.00 | 0.00 | 0.00 | 91 | 1015.9 |
| 20260902002803 | 64 | 228 | 1.0 | 4.0 | 0.00 | 0.00 | 0.00 | 91 | 1015.9 |
| 20260902002703 | 64 | 228 | 3.0 | 4.0 | 0.00 | 0.00 | 0.00 | 91 | 1015.9 |
| 20260902002606 | 64 | 228 | 2.0 | 4.0 | 0.00 | 0.00 | 0.00 | 91 | 1015.9 |
| 20260902002504 | 64 | 228 | 0.0 | 4.0 | 0.00 | 0.00 | 0.00 | 91 | 1016.0 |
| 20260902002403 | 64 | 228 | 2.0 | 4.0 | 0.00 | 0.00 | 0.00 | 91 | 1016.0 |
| 20260902002306 | 64 | 228 | 0.0 | 4.0 | 0.00 | 0.00 | 0.00 | 91 | 1016.0 |
| 20260902002104 | 64 | 228 | 3.0 | 4.0 | 0.00 | 0.00 | 0.00 | 91 | 1016.0 |
| 20260902002007 | 64 | 228 | 2.0 | 4.0 | 0.00 | 0.00 | 0.00 | 91 | 1016.1 |
| 20260902001904 | 64 | 228 | 0.0 | 5.0 | 0.00 | 0.00 | 0.00 | 91 | 1016.0 |
| 20260902001706 | 64 | 228 | 0.0 | 5.0 | 0.00 | 0.00 | 0.00 | 91 | 1016.0 |
| 20260902001603 | 64 | 228 | 3.0 | 5.0 | 0.00 | 0.00 | 0.00 | 91 | 1016.0 |
| 20260902001504 | 64 | 228 | 3.0 | 5.0 | 0.00 | 0.00 | 0.00 | 91 | 1016.1 |
| 20260902001303 | 64 | 228 | 1.0 | 5.0 | 0.00 | 0.00 | 0.00 | 91 | 1016.0 |
| 20260902001204 | 64 | 228 | 0.0 | 5.0 | 0.00 | 0.00 | 0.00 | 91 | 1016.0 |
| 20260902001106 | 64 | 228 | 2.0 | 5.0 | 0.00 | 0.00 | 0.00 | 91 | 1016.1 |
| 20260902001004 | 64 | 228 | 4.0 | 5.0 | 0.00 | 0.00 | 0.00 | 90 | 1016.1 |
| 20260902000905 | 64 | 228 | 3.0 | 5.0 | 0.00 | 0.00 | 0.00 | 90 | 1016.0 |
| 20260902000703 | 64 | 228 | 0.0 | 5.0 | 0.00 | 0.00 | 0.00 | 90 | 1016.0 |
| 20260902000603 | 64 | 228 | 3.0 | 5.0 | 0.00 | 0.00 | 0.00 | 90 | 1016.0 |
| 20260902000506 | 64 | 219 | 4.0 | 5.0 | 0.00 | 0.00 | 0.00 | 90 | 1016.0 |
| 20260902000406 | 64 | 269 | 5.0 | 5.0 | 0.00 | 0.00 | 0.00 | 90 | 1016.0 |
| 20260902000304 | 65 | 269 | 1.0 | 4.0 | 0.00 | 0.00 | 0.00 | 90 | 1015.9 |
| 20260902000204 | 65 | 269 | 1.0 | 4.0 | 0.00 | 0.00 | 0.00 | 90 | 1016.0 |
| 20260902000117 | 65 | 269 | 1.0 | 4.0 | 0.00 | 0.00 | 0.00 | 90 | 1015.9 |
| 20260902000006 | 65 | 269 | 2.0 | 4.0 | 0.00 | 0.00 | 0.00 | 90 | 1016.0 |
| 20260901235903 | 65 | 269 | 3.0 | 4.0 | 0.00 | 0.00 | 0.00 | 90 | 1016.0 |
| 20260901235806 | 65 | 269 | 1.0 | 4.0 | 0.00 | 0.00 | 0.00 | 90 | 1016.1 |
| 20260901235604 | 65 | 30 | 1.0 | 4.0 | 0.00 | 0.00 | 0.00 | 90 | 1016.0 |
| 20260901235507 | 65 | 30 | 0.0 | 4.0 | 0.00 | 0.00 | 0.00 | 90 | 1016.0 |
| 20260901235404 | 65 | 30 | 0.0 | 4.0 | 0.00 | 0.00 | 0.00 | 90 | 1016.0 |
| 20260901235307 | 65 | 30 | 1.0 | 4.0 | 0.00 | 0.00 | 0.00 | 90 | 1016.0 |
| 20260901235206 | 65 | 30 | 2.0 | 4.0 | 0.00 | 0.00 | 0.00 | 90 | 1016.0 |
| 20260901235103 | 65 | 30 | 3.0 | 4.0 | 0.00 | 0.00 | 0.00 | 90 | 1015.9 |
| 20260901235004 | 65 | 30 | 3.0 | 4.0 | 0.00 | 0.00 | 0.00 | 90 | 1015.9 |
| 20260901234907 | 65 | 30 | 1.0 | 4.0 | 0.00 | 0.00 | 0.00 | 90 | 1015.9 |
| 20260901234803 | 65 | 30 | 0.0 | 4.0 | 0.00 | 0.00 | 0.00 | 89 | 1016.0 |
| 20260901234703 | 65 | 30 | 3.0 | 4.0 | 0.00 | 0.00 | 0.00 | 89 | 1016.0 |
| 20260901234504 | 66 | 30 | 3.0 | 3.0 | 0.00 | 0.00 | 0.00 | 89 | 1016.0 |
| 20260901234404 | 66 | 30 | 0.0 | 2.0 | 0.00 | 0.00 | 0.00 | 89 | 1016.0 |
| 20260901234306 | 66 | 30 | 1.0 | 2.0 | 0.00 | 0.00 | 0.00 | 89 | 1015.9 |
| 20260901234204 | 66 | 30 | 0.0 | 2.0 | 0.00 | 0.00 | 0.00 | 89 | 1016.0 |
| 20260901234104 | 66 | 30 | 0.0 | 3.0 | 0.00 | 0.00 | 0.00 | 89 | 1016.0 |
| 20260901234009 | 66 | 30 | 0.0 | 3.0 | 0.00 | 0.00 | 0.00 | 89 | 1016.0 |
| 20260901233804 | 66 | 30 | 0.0 | 3.0 | 0.00 | 0.00 | 0.00 | 89 | 1016.0 |
| 20260901233706 | 66 | 30 | 0.0 | 3.0 | 0.00 | 0.00 | 0.00 | 89 | 1016.0 |
| 20260901233603 | 66 | 30 | 0.0 | 3.0 | 0.00 | 0.00 | 0.00 | 89 | 1016.0 |
| 20260901233504 | 66 | 30 | 0.0 | 3.0 | 0.00 | 0.00 | 0.00 | 89 | 1016.0 |
| 20260901233406 | 67 | 30 | 0.0 | 3.0 | 0.00 | 0.00 | 0.00 | 89 | 1015.9 |
| 20260901233303 | 67 | 30 | 0.0 | 3.0 | 0.00 | 0.00 | 0.00 | 89 | 1015.9 |
| 20260901233203 | 67 | 30 | 1.0 | 3.0 | 0.00 | 0.00 | 0.00 | 89 | 1015.9 |
| 20260901233107 | 67 | 30 | 2.0 | 3.0 | 0.00 | 0.00 | 0.00 | 89 | 1016.0 |
| 20260901232903 | 67 | 30 | 1.0 | 3.0 | 0.00 | 0.00 | 0.00 | 89 | 1016.0 |
| 20260901232806 | 67 | 30 | 0.0 | 3.0 | 0.00 | 0.00 | 0.00 | 89 | 1016.0 |
| 20260901232703 | 67 | 30 | 0.0 | 3.0 | 0.00 | 0.00 | 0.00 | 89 | 1016.0 |
| 20260901232603 | 67 | 30 | 1.0 | 4.0 | 0.00 | 0.00 | 0.00 | 89 | 1016.0 |
| 20260901232403 | 67 | 30 | 2.0 | 4.0 | 0.00 | 0.00 | 0.00 | 89 | 1016.0 |
| 20260901232306 | 67 | 30 | 2.0 | 4.0 | 0.00 | 0.00 | 0.00 | 89 | 1016.0 |
| 20260901232005 | 67 | 30 | 0.0 | 4.0 | 0.00 | 0.00 | 0.00 | 88 | 1016.0 |
| 20260901231906 | 68 | 30 | 0.0 | 4.0 | 0.00 | 0.00 | 0.00 | 89 | 1015.9 |
| 20260901231803 | 68 | 30 | 1.0 | 4.0 | 0.00 | 0.00 | 0.00 | 89 | 1016.0 |
| 20260901231703 | 68 | 30 | 3.0 | 4.0 | 0.00 | 0.00 | 0.00 | 89 | 1016.0 |
| 20260901231607 | 68 | 30 | 4.0 | 4.0 | 0.00 | 0.00 | 0.00 | 88 | 1016.0 |
| 20260901231203 | 68 | 30 | 3.0 | 3.0 | 0.00 | 0.00 | 0.00 | 87 | 1015.9 |
| 20260901231104 | 68 | 30 | 2.0 | 3.0 | 0.00 | 0.00 | 0.00 | 87 | 1016.0 |
| 20260901231006 | 68 | 30 | 2.0 | 4.0 | 0.00 | 0.00 | 0.00 | 87 | 1015.9 |
| 20260901230805 | 68 | 30 | 1.0 | 4.0 | 0.00 | 0.00 | 0.00 | 87 | 1015.9 |
| 20260901230706 | 68 | 30 | 2.0 | 4.0 | 0.00 | 0.00 | 0.00 | 87 | 1016.0 |
| 20260901230603 | 68 | 30 | 2.0 | 4.0 | 0.00 | 0.00 | 0.00 | 88 | 1015.9 |
| 20260901230504 | 68 | 30 | 1.0 | 4.0 | 0.00 | 0.00 | 0.00 | 88 | 1015.9 |
| 20260901230406 | 68 | 30 | 1.0 | 4.0 | 0.00 | 0.00 | 0.00 | 88 | 1015.9 |
| 20260901230303 | 68 | 30 | 1.0 | 4.0 | 0.00 | 0.00 | 0.00 | 88 | 1015.9 |
| 20260901230204 | 68 | 30 | 2.0 | 4.0 | 0.00 | 0.00 | 0.00 | 88 | 1016.0 |
| 20260901225904 | 69 | 30 | 3.0 | 4.0 | 0.00 | 0.00 | 0.00 | 87 | 1015.9 |
| 20260901225810 | 69 | 30 | 2.0 | 4.0 | 0.00 | 0.00 | 0.00 | 87 | 1015.9 |
| 20260901225603 | 69 | 30 | 2.0 | 5.0 | 0.00 | 0.00 | 0.00 | 87 | 1016.0 |
| 20260901225506 | 69 | 30 | 2.0 | 5.0 | 0.00 | 0.00 | 0.00 | 88 | 1015.9 |
| 20260901225403 | 69 | 30 | 2.0 | 5.0 | 0.00 | 0.00 | 0.00 | 88 | 1015.9 |
| 20260901225306 | 69 | 30 | 3.0 | 5.0 | 0.00 | 0.00 | 0.00 | 88 | 1016.0 |
| 20260901225103 | 69 | 30 | 3.0 | 5.0 | 0.00 | 0.00 | 0.00 | 88 | 1015.9 |
| 20260901225005 | 69 | 30 | 3.0 | 5.0 | 0.00 | 0.00 | 0.00 | 88 | 1015.9 |
| 20260901224906 | 69 | 30 | 3.0 | 5.0 | 0.00 | 0.00 | 0.00 | 88 | 1016.0 |
| 20260901224804 | 69 | 30 | 3.0 | 5.0 | 0.00 | 0.00 | 0.00 | 88 | 1015.9 |
| 20260901224606 | 69 | 30 | 4.0 | 5.0 | 0.00 | 0.00 | 0.00 | 88 | 1016.0 |
| 20260901224503 | 69 | 30 | 4.0 | 5.0 | 0.00 | 0.00 | 0.00 | 87 | 1016.0 |
| 20260901224403 | 69 | 30 | 3.0 | 5.0 | 0.00 | 0.00 | 0.00 | 87 | 1016.0 |
| 20260901224204 | 68 | 36 | 4.0 | 5.0 | 0.00 | 0.00 | 0.00 | 87 | 1016.0 |
| 20260901224104 | 68 | 53 | 4.0 | 5.0 | 0.00 | 0.00 | 0.00 | 87 | 1016.0 |
| 20260901224007 | 68 | 59 | 3.0 | 5.0 | 0.00 | 0.00 | 0.00 | 87 | 1016.0 |
| 20260901223706 | 68 | 350 | 3.0 | 5.0 | 0.00 | 0.00 | 0.00 | 87 | 1016.0 |
| 20260901223504 | 68 | 350 | 3.0 | 5.0 | 0.00 | 0.00 | 0.00 | 88 | 1016.0 |
| 20260901223406 | 69 | 331 | 2.0 | 5.0 | 0.00 | 0.00 | 0.00 | 88 | 1016.0 |
| 20260901223303 | 69 | 331 | 3.0 | 5.0 | 0.00 | 0.00 | 0.00 | 88 | 1015.9 |
| 20260901223106 | 68 | 346 | 3.0 | 5.0 | 0.00 | 0.00 | 0.00 | 88 | 1015.9 |
| 20260901222806 | 68 | 5 | 3.0 | 4.0 | 0.00 | 0.00 | 0.00 | 88 | 1015.9 |
| 20260901222506 | 68 | 228 | 1.0 | 2.0 | 0.00 | 0.00 | 0.00 | 89 | 1015.9 |
| 20260901222403 | 68 | 228 | 0.0 | 2.0 | 0.00 | 0.00 | 0.00 | 89 | 1015.9 |
| 20260901222306 | 68 | 228 | 0.0 | 2.0 | 0.00 | 0.00 | 0.00 | 89 | 1015.9 |
| 20260901222206 | 68 | 228 | 0.0 | 2.0 | 0.00 | 0.00 | 0.00 | 89 | 1015.9 |
| 20260901222104 | 68 | 228 | 0.0 | 2.0 | 0.00 | 0.00 | 0.00 | 89 | 1015.9 |
| 20260901222004 | 68 | 228 | 2.0 | 2.0 | 0.00 | 0.00 | 0.00 | 89 | 1015.9 |
| 20260901221906 | 68 | 228 | 1.0 | 3.0 | 0.00 | 0.00 | 0.00 | 89 | 1015.8 |
| 20260901221803 | 68 | 228 | 1.0 | 4.0 | 0.00 | 0.00 | 0.00 | 89 | 1015.8 |
| 20260901221703 | 68 | 225 | 0.0 | 4.0 | 0.00 | 0.00 | 0.00 | 88 | 1015.8 |
| 20260901221606 | 68 | 225 | 0.0 | 4.0 | 0.00 | 0.00 | 0.00 | 88 | 1015.8 |
| 20260901221503 | 68 | 225 | 0.0 | 4.0 | 0.00 | 0.00 | 0.00 | 89 | 1015.8 |
| 20260901221403 | 68 | 225 | 2.0 | 4.0 | 0.00 | 0.00 | 0.00 | 89 | 1015.8 |
| 20260901221306 | 68 | 228 | 0.0 | 5.0 | 0.00 | 0.00 | 0.00 | 89 | 1015.8 |
| 20260901221204 | 68 | 228 | 1.0 | 6.0 | 0.00 | 0.00 | 0.00 | 89 | 1015.8 |
| 20260901221103 | 68 | 204 | 2.0 | 6.0 | 0.00 | 0.00 | 0.00 | 89 | 1015.8 |
| 20260901220904 | 68 | 196 | 1.0 | 6.0 | 0.00 | 0.00 | 0.00 | 89 | 1015.8 |
| 20260901220804 | 68 | 196 | 1.0 | 6.0 | 0.00 | 0.00 | 0.00 | 89 | 1015.8 |
| 20260901220706 | 68 | 196 | 2.0 | 6.0 | 0.00 | 0.00 | 0.00 | 89 | 1015.7 |
| 20260901220603 | 68 | 194 | 3.0 | 6.0 | 0.00 | 0.00 | 0.00 | 90 | 1015.8 |
| 20260901220406 | 68 | 194 | 3.0 | 6.0 | 0.00 | 0.00 | 0.00 | 90 | 1015.8 |
| 20260901220203 | 68 | 200 | 4.0 | 6.0 | 0.00 | 0.00 | 0.00 | 90 | 1015.8 |
| 20260901220128 | 68 | 195 | 5.0 | 6.0 | 0.00 | 0.00 | 0.00 | 90 | 1015.8 |
| 20260901220022 | 68 | 195 | 6.0 | 6.0 | 0.00 | 0.00 | 0.00 | 90 | 1015.8 |
| 20260901215904 | 68 | 196 | 5.0 | 7.0 | 0.00 | 0.00 | 0.00 | 90 | 1015.8 |
| 20260901215804 | 68 | 192 | 5.0 | 7.0 | 0.00 | 0.00 | 0.00 | 90 | 1015.8 |
| 20260901215707 | 68 | 192 | 5.0 | 7.0 | 0.00 | 0.00 | 0.00 | 90 | 1015.8 |
| 20260901215605 | 68 | 190 | 5.0 | 7.0 | 0.00 | 0.00 | 0.00 | 90 | 1015.8 |
| 20260901215505 | 68 | 190 | 5.0 | 7.0 | 0.00 | 0.00 | 0.00 | 90 | 1015.8 |
| 20260901215407 | 68 | 188 | 5.0 | 7.0 | 0.00 | 0.00 | 0.00 | 90 | 1015.8 |
| 20260901215306 | 68 | 181 | 6.0 | 7.0 | 0.00 | 0.00 | 0.00 | 90 | 1015.8 |
| 20260901215204 | 68 | 184 | 6.0 | 7.0 | 0.00 | 0.00 | 0.00 | 90 | 1015.8 |
| 20260901215107 | 68 | 181 | 6.0 | 7.0 | 0.00 | 0.00 | 0.00 | 90 | 1015.8 |
| 20260901215005 | 68 | 186 | 5.0 | 7.0 | 0.00 | 0.00 | 0.00 | 90 | 1015.8 |
| 20260901214904 | 68 | 184 | 6.0 | 7.0 | 0.00 | 0.00 | 0.00 | 90 | 1015.8 |
| 20260901214705 | 68 | 186 | 7.0 | 7.0 | 0.00 | 0.00 | 0.00 | 90 | 1015.8 |
| 20260901214604 | 68 | 191 | 4.0 | 7.0 | 0.00 | 0.00 | 0.00 | 90 | 1015.8 |
| 20260901214507 | 68 | 185 | 6.0 | 7.0 | 0.00 | 0.00 | 0.00 | 90 | 1015.8 |
| 20260901214405 | 68 | 189 | 6.0 | 7.0 | 0.00 | 0.00 | 0.00 | 90 | 1015.8 |
| 20260901214305 | 68 | 188 | 6.0 | 6.0 | 0.00 | 0.00 | 0.00 | 90 | 1015.8 |
| 20260901214207 | 68 | 184 | 5.0 | 6.0 | 0.00 | 0.00 | 0.00 | 89 | 1015.8 |
| 20260901214104 | 68 | 199 | 5.0 | 5.0 | 0.00 | 0.00 | 0.00 | 89 | 1015.8 |
| 20260901213805 | 68 | 217 | 4.0 | 4.0 | 0.00 | 0.00 | 0.00 | 89 | 1015.8 |
| 20260901213704 | 68 | 217 | 3.0 | 4.0 | 0.00 | 0.00 | 0.00 | 89 | 1015.8 |
| 20260901213607 | 69 | 80 | 2.0 | 4.0 | 0.00 | 0.00 | 0.00 | 89 | 1015.8 |
| 20260901213504 | 69 | 80 | 2.0 | 4.0 | 0.00 | 0.00 | 0.00 | 89 | 1015.7 |
| 20260901213404 | 69 | 80 | 2.0 | 4.0 | 0.00 | 0.00 | 0.00 | 89 | 1015.8 |
| 20260901213307 | 69 | 80 | 2.0 | 4.0 | 0.00 | 0.00 | 0.00 | 89 | 1015.8 |
| 20260901213206 | 69 | 80 | 3.0 | 4.0 | 0.00 | 0.00 | 0.00 | 89 | 1015.8 |
| 20260901213011 | 69 | 80 | 3.0 | 3.0 | 0.00 | 0.00 | 0.00 | 89 | 1015.8 |
| 20260901212904 | 69 | 80 | 2.0 | 3.0 | 0.00 | 0.00 | 0.00 | 89 | 1015.8 |
| 20260901212804 | 69 | 80 | 1.0 | 3.0 | 0.00 | 0.00 | 0.00 | 89 | 1015.8 |
| 20260901212707 | 69 | 80 | 2.0 | 3.0 | 0.00 | 0.00 | 0.00 | 89 | 1015.8 |
| 20260901212604 | 69 | 80 | 1.0 | 3.0 | 0.00 | 0.00 | 0.00 | 89 | 1015.8 |
| 20260901212406 | 69 | 80 | 0.0 | 3.0 | 0.00 | 0.00 | 0.00 | 89 | 1015.8 |
| 20260901212306 | 69 | 80 | 2.0 | 3.0 | 0.00 | 0.00 | 0.00 | 89 | 1015.9 |
| 20260901212204 | 69 | 80 | 1.0 | 4.0 | 0.00 | 0.00 | 0.00 | 89 | 1015.8 |
| 20260901212107 | 69 | 80 | 0.0 | 4.0 | 0.00 | 0.00 | 0.00 | 89 | 1015.8 |
| 20260901212005 | 69 | 80 | 0.0 | 4.0 | 0.00 | 0.00 | 0.00 | 89 | 1015.8 |
| 20260901211904 | 69 | 80 | 0.0 | 4.0 | 0.00 | 0.00 | 0.00 | 89 | 1015.8 |
| 20260901211808 | 69 | 80 | 0.0 | 4.0 | 0.00 | 0.00 | 0.00 | 89 | 1015.8 |
| 20260901211704 | 69 | 80 | 1.0 | 4.0 | 0.00 | 0.00 | 0.00 | 89 | 1015.8 |
| 20260901211604 | 69 | 80 | 1.0 | 4.0 | 0.00 | 0.00 | 0.00 | 89 | 1015.8 |
| 20260901211404 | 69 | 80 | 2.0 | 4.0 | 0.00 | 0.00 | 0.00 | 89 | 1015.8 |
| 20260901211208 | 70 | 80 | 3.0 | 5.0 | 0.00 | 0.00 | 0.00 | 89 | 1015.7 |
| 20260901211104 | 70 | 80 | 5.0 | 5.0 | 0.00 | 0.00 | 0.00 | 89 | 1015.7 |
| 20260901211005 | 70 | 80 | 3.0 | 3.0 | 0.00 | 0.00 | 0.00 | 89 | 1015.7 |
| 20260901210907 | 70 | 80 | 2.0 | 3.0 | 0.00 | 0.00 | 0.00 | 89 | 1015.7 |
| 20260901210804 | 70 | 80 | 2.0 | 3.0 | 0.00 | 0.00 | 0.00 | 89 | 1015.7 |
| 20260901210607 | 70 | 80 | 2.0 | 3.0 | 0.00 | 0.00 | 0.00 | 89 | 1015.7 |
| 20260901210505 | 70 | 80 | 3.0 | 3.0 | 0.00 | 0.00 | 0.00 | 89 | 1015.7 |
| 20260901210404 | 70 | 80 | 3.0 | 3.0 | 0.00 | 0.00 | 0.00 | 89 | 1015.8 |
| 20260901210307 | 70 | 80 | 2.0 | 3.0 | 0.00 | 0.00 | 0.00 | 89 | 1015.7 |
| 20260901210204 | 70 | 80 | 2.0 | 3.0 | 0.00 | 0.00 | 0.00 | 88 | 1015.8 |
| 20260901210104 | 70 | 80 | 1.0 | 3.0 | 0.00 | 0.00 | 0.00 | 88 | 1015.7 |
| 20260901210012 | 70 | 80 | 1.0 | 3.0 | 0.00 | 0.00 | 0.00 | 88 | 1015.7 |
| 20260901205904 | 70 | 80 | 2.0 | 3.0 | 0.00 | 0.00 | 0.00 | 87 | 1015.7 |
| 20260901205805 | 70 | 80 | 2.0 | 2.0 | 0.00 | 0.00 | 0.00 | 87 | 1015.7 |
| 20260901205708 | 70 | 80 | 2.0 | 2.0 | 0.00 | 0.00 | 0.00 | 87 | 1015.7 |
| 20260901205604 | 70 | 80 | 2.0 | 2.0 | 0.00 | 0.00 | 0.00 | 88 | 1015.8 |
| 20260901205504 | 70 | 80 | 1.0 | 2.0 | 0.00 | 0.00 | 0.00 | 88 | 1015.7 |
| 20260901205407 | 70 | 80 | 1.0 | 1.0 | 0.00 | 0.00 | 0.00 | 87 | 1015.7 |
| 20260901205306 | 70 | 80 | 0.0 | 1.0 | 0.00 | 0.00 | 0.00 | 87 | 1015.7 |
| 20260901205204 | 70 | 80 | 0.0 | 2.0 | 0.00 | 0.00 | 0.00 | 87 | 1015.7 |
| 20260901205108 | 70 | 80 | 0.0 | 2.0 | 0.00 | 0.00 | 0.00 | 87 | 1015.7 |
| 20260901205010 | 70 | 80 | 1.0 | 2.0 | 0.00 | 0.00 | 0.00 | 87 | 1015.7 |
| 20260901204904 | 70 | 80 | 1.0 | 2.0 | 0.00 | 0.00 | 0.00 | 87 | 1015.7 |
| 20260901204807 | 70 | 80 | 1.0 | 2.0 | 0.00 | 0.00 | 0.00 | 87 | 1015.7 |
| 20260901204705 | 70 | 80 | 1.0 | 3.0 | 0.00 | 0.00 | 0.00 | 88 | 1015.7 |
| 20260901204604 | 70 | 80 | 1.0 | 3.0 | 0.00 | 0.00 | 0.00 | 87 | 1015.7 |
| 20260901204508 | 71 | 80 | 0.0 | 3.0 | 0.00 | 0.00 | 0.00 | 88 | 1015.7 |
| 20260901204304 | 71 | 80 | 1.0 | 3.0 | 0.00 | 0.00 | 0.00 | 88 | 1015.7 |
| 20260901204207 | 71 | 80 | 2.0 | 4.0 | 0.00 | 0.00 | 0.00 | 88 | 1015.7 |
| 20260901204005 | 71 | 80 | 1.0 | 4.0 | 0.00 | 0.00 | 0.00 | 88 | 1015.6 |
| 20260901203805 | 71 | 80 | 2.0 | 4.0 | 0.00 | 0.00 | 0.00 | 88 | 1015.6 |
| 20260901203704 | 71 | 80 | 2.0 | 4.0 | 0.00 | 0.00 | 0.00 | 88 | 1015.6 |
| 20260901203607 | 71 | 80 | 1.0 | 4.0 | 0.00 | 0.00 | 0.00 | 88 | 1015.6 |
| 20260901203504 | 71 | 80 | 0.0 | 4.0 | 0.00 | 0.00 | 0.00 | 88 | 1015.6 |
| 20260901203404 | 71 | 80 | 1.0 | 4.0 | 0.00 | 0.00 | 0.00 | 88 | 1015.6 |
| 20260901203307 | 71 | 80 | 2.0 | 4.0 | 0.00 | 0.00 | 0.00 | 88 | 1015.6 |
| 20260901203204 | 71 | 80 | 3.0 | 5.0 | 0.00 | 0.00 | 0.00 | 88 | 1015.5 |
| 20260901203104 | 71 | 80 | 3.0 | 5.0 | 0.00 | 0.00 | 0.00 | 88 | 1015.6 |
| 20260901202904 | 71 | 80 | 3.0 | 3.0 | 0.00 | 0.00 | 0.00 | 88 | 1015.6 |
| 20260901202804 | 71 | 80 | 2.0 | 3.0 | 0.00 | 0.00 | 0.00 | 88 | 1015.6 |
| 20260901202708 | 71 | 80 | 2.0 | 3.0 | 0.00 | 0.00 | 0.00 | 88 | 1015.6 |
| 20260901202505 | 71 | 80 | 2.0 | 3.0 | 0.00 | 0.00 | 0.00 | 88 | 1015.6 |
| 20260901202407 | 71 | 80 | 3.0 | 3.0 | 0.00 | 0.00 | 0.00 | 88 | 1015.6 |
| 20260901202306 | 71 | 80 | 2.0 | 3.0 | 0.00 | 0.00 | 0.00 | 88 | 1015.6 |
| 20260901202205 | 71 | 80 | 1.0 | 3.0 | 0.00 | 0.00 | 0.00 | 88 | 1015.6 |
| 20260901202104 | 71 | 80 | 2.0 | 3.0 | 0.00 | 0.00 | 0.00 | 88 | 1015.5 |
| 20260901201904 | 71 | 80 | 0.0 | 3.0 | 0.00 | 0.00 | 0.00 | 88 | 1015.6 |
| 20260901201805 | 71 | 80 | 1.0 | 3.0 | 0.00 | 0.00 | 0.00 | 88 | 1015.5 |
| 20260901201706 | 71 | 80 | 2.0 | 3.0 | 0.00 | 0.00 | 0.00 | 88 | 1015.6 |
| 20260901201605 | 71 | 80 | 2.0 | 3.0 | 0.00 | 0.00 | 0.00 | 87 | 1015.5 |
| 20260901201504 | 71 | 80 | 1.0 | 4.0 | 0.00 | 0.00 | 0.00 | 87 | 1015.6 |
| 20260901201407 | 71 | 80 | 2.0 | 4.0 | 0.00 | 0.00 | 0.00 | 87 | 1015.6 |
| 20260901201304 | 71 | 80 | 2.0 | 4.0 | 0.00 | 0.00 | 0.00 | 87 | 1015.6 |
| 20260901201206 | 71 | 80 | 2.0 | 4.0 | 0.00 | 0.00 | 0.00 | 87 | 1015.6 |
| 20260901201108 | 71 | 80 | 2.0 | 4.0 | 0.00 | 0.00 | 0.00 | 87 | 1015.6 |
| 20260901200904 | 71 | 80 | 1.0 | 4.0 | 0.00 | 0.00 | 0.00 | 87 | 1015.6 |
| 20260901200809 | 71 | 80 | 2.0 | 4.0 | 0.00 | 0.00 | 0.00 | 87 | 1015.6 |
| 20260901200705 | 71 | 80 | 2.0 | 4.0 | 0.00 | 0.00 | 0.00 | 87 | 1015.6 |
| 20260901200604 | 71 | 80 | 3.0 | 4.0 | 0.00 | 0.00 | 0.00 | 87 | 1015.6 |
| 20260901200405 | 72 | 80 | 5.0 | 5.0 | 0.00 | 0.00 | 0.00 | 86 | 1015.6 |
| 20260901200207 | 72 | 80 | 3.0 | 3.0 | 0.00 | 0.00 | 0.00 | 87 | 1015.6 |
| 20260901200121 | 72 | 80 | 2.0 | 3.0 | 0.00 | 0.00 | 0.00 | 87 | 1015.6 |
| 20260901200008 | 72 | 80 | 2.0 | 3.0 | 0.00 | 0.00 | 0.00 | 87 | 1015.6 |
| 20260901195908 | 72 | 80 | 2.0 | 3.0 | 0.00 | 0.00 | 0.00 | 87 | 1015.7 |
| 20260901195705 | 72 | 80 | 1.0 | 4.0 | 0.00 | 0.00 | 0.00 | 87 | 1015.7 |
| 20260901195608 | 72 | 80 | 0.0 | 4.0 | 0.00 | 0.00 | 0.00 | 87 | 1015.7 |
| 20260901195505 | 72 | 80 | 0.0 | 4.0 | 0.00 | 0.00 | 0.00 | 87 | 1015.7 |
| 20260901195405 | 72 | 80 | 1.0 | 4.0 | 0.00 | 0.00 | 0.00 | 87 | 1015.6 |
| 20260901195205 | 72 | 80 | 2.0 | 4.0 | 0.00 | 0.00 | 0.00 | 86 | 1015.6 |
| 20260901195106 | 72 | 80 | 2.0 | 4.0 | 0.00 | 0.00 | 0.00 | 86 | 1015.5 |
| 20260901195009 | 72 | 80 | 2.0 | 4.0 | 0.00 | 0.00 | 0.00 | 86 | 1015.5 |
| 20260901194905 | 72 | 80 | 3.0 | 4.0 | 0.00 | 0.00 | 0.00 | 86 | 1015.5 |
| 20260901194807 | 72 | 80 | 3.0 | 5.0 | 0.00 | 0.00 | 0.00 | 86 | 1015.5 |
| 20260901194708 | 72 | 80 | 3.0 | 5.0 | 0.00 | 0.00 | 0.00 | 86 | 1015.5 |
| 20260901194604 | 72 | 80 | 3.0 | 5.0 | 0.00 | 0.00 | 0.00 | 86 | 1015.5 |
| 20260901194505 | 72 | 80 | 3.0 | 3.0 | 0.00 | 0.00 | 0.00 | 86 | 1015.5 |
| 20260901194407 | 72 | 80 | 1.0 | 1.0 | 0.00 | 0.00 | 0.00 | 86 | 1015.5 |
| 20260901194305 | 72 | 80 | 0.0 | 0.0 | 0.00 | 0.00 | 0.00 | 86 | 1015.6 |
| 20260901194204 | 73 | 80 | 0.0 | 0.0 | 0.00 | 0.00 | 0.00 | 86 | 1015.6 |
| 20260901194108 | 73 | 80 | 0.0 | 0.0 | 0.00 | 0.00 | 0.00 | 85 | 1015.6 |
| 20260901193906 | 73 | 80 | 0.0 | 1.0 | 0.00 | 0.00 | 0.00 | 85 | 1015.6 |
| 20260901193808 | 73 | 80 | 0.0 | 2.0 | 0.00 | 0.00 | 0.00 | 85 | 1015.6 |
| 20260901193705 | 73 | 80 | 0.0 | 2.0 | 0.00 | 0.00 | 0.00 | 85 | 1015.7 |
| 20260901193604 | 73 | 80 | 0.0 | 2.0 | 0.00 | 0.00 | 0.00 | 85 | 1015.6 |
| 20260901193507 | 73 | 80 | 0.0 | 2.0 | 0.00 | 0.00 | 0.00 | 85 | 1015.7 |
| 20260901193406 | 73 | 80 | 0.0 | 2.0 | 0.00 | 0.00 | 0.00 | 85 | 1015.7 |
| 20260901193305 | 73 | 80 | 0.0 | 2.0 | 0.00 | 0.00 | 0.00 | 85 | 1015.7 |
| 20260901193207 | 73 | 80 | 0.0 | 2.0 | 0.00 | 0.00 | 0.00 | 85 | 1015.7 |
| 20260901193006 | 73 | 80 | 0.0 | 2.0 | 0.00 | 0.00 | 0.00 | 85 | 1015.6 |
| 20260901192804 | 73 | 80 | 1.0 | 2.0 | 0.00 | 0.00 | 0.00 | 84 | 1015.6 |
| 20260901192705 | 73 | 80 | 1.0 | 2.0 | 0.00 | 0.00 | 0.00 | 84 | 1015.6 |
| 20260901192607 | 73 | 80 | 1.0 | 2.0 | 0.00 | 0.00 | 0.00 | 84 | 1015.5 |
| 20260901192505 | 74 | 80 | 1.0 | 2.0 | 0.00 | 0.00 | 0.00 | 84 | 1015.5 |
| 20260901192419 | 74 | 80 | 2.0 | 2.0 | 0.00 | 0.00 | 0.00 | 84 | 1015.5 |
| 20260901192307 | 74 | 80 | 1.0 | 2.0 | 0.00 | 0.00 | 0.00 | 84 | 1015.5 |
| 20260901192204 | 74 | 80 | 0.0 | 2.0 | 0.00 | 0.00 | 0.00 | 84 | 1015.5 |
| 20260901192104 | 74 | 80 | 0.0 | 2.0 | 0.00 | 0.00 | 0.00 | 84 | 1015.4 |
| 20260901192009 | 74 | 80 | 0.0 | 2.0 | 0.00 | 0.00 | 0.00 | 84 | 1015.4 |
| 20260901191708 | 74 | 80 | 1.0 | 2.0 | 0.00 | 0.00 | 0.00 | 84 | 1015.4 |
| 20260901191605 | 74 | 80 | 0.0 | 2.0 | 0.00 | 0.00 | 0.00 | 83 | 1015.4 |
| 20260901191505 | 74 | 80 | 0.0 | 2.0 | 0.00 | 0.00 | 0.00 | 83 | 1015.4 |
| 20260901191410 | 75 | 80 | 0.0 | 2.0 | 0.00 | 0.00 | 0.00 | 83 | 1015.4 |
| 20260901191305 | 75 | 80 | 0.0 | 2.0 | 0.00 | 0.00 | 0.00 | 83 | 1015.4 |
| 20260901191205 | 75 | 80 | 1.0 | 2.0 | 0.00 | 0.00 | 0.00 | 83 | 1015.4 |
| 20260901191107 | 75 | 80 | 2.0 | 2.0 | 0.00 | 0.00 | 0.00 | 83 | 1015.4 |
| 20260901191007 | 75 | 80 | 1.0 | 2.0 | 0.00 | 0.00 | 0.00 | 82 | 1015.4 |
| 20260901190912 | 75 | 80 | 0.0 | 2.0 | 0.00 | 0.00 | 0.00 | 82 | 1015.4 |
| 20260901190807 | 75 | 80 | 1.0 | 2.0 | 0.00 | 0.00 | 0.00 | 82 | 1015.3 |
| 20260901190705 | 75 | 80 | 1.0 | 2.0 | 0.00 | 0.00 | 0.00 | 82 | 1015.3 |
| 20260901190607 | 75 | 80 | 1.0 | 2.0 | 0.00 | 0.00 | 0.00 | 82 | 1015.3 |
| 20260901190406 | 75 | 80 | 1.0 | 2.0 | 0.00 | 0.00 | 0.00 | 82 | 1015.3 |
| 20260901190305 | 76 | 80 | 1.0 | 1.0 | 0.00 | 0.00 | 0.00 | 81 | 1015.2 |
| 20260901190208 | 76 | 80 | 1.0 | 1.0 | 0.00 | 0.00 | 0.00 | 81 | 1015.2 |
| 20260901190010 | 76 | 80 | 0.0 | 2.0 | 0.00 | 0.00 | 0.00 | 81 | 1015.2 |
| 20260901185907 | 76 | 80 | 1.0 | 2.0 | 0.00 | 0.00 | 0.00 | 81 | 1015.1 |
| 20260901185805 | 76 | 80 | 0.0 | 3.0 | 0.00 | 0.00 | 0.00 | 80 | 1015.0 |
| 20260901185705 | 76 | 80 | 0.0 | 3.0 | 0.00 | 0.00 | 0.00 | 80 | 1015.0 |
| 20260901185608 | 76 | 80 | 0.0 | 3.0 | 0.00 | 0.00 | 0.00 | 80 | 1015.1 |
| 20260901185506 | 77 | 80 | 0.0 | 3.0 | 0.00 | 0.00 | 0.00 | 80 | 1015.0 |
| 20260901185403 | 77 | 80 | 1.0 | 3.0 | 0.00 | 0.00 | 0.00 | 79 | 1015.0 |
| 20260901185307 | 77 | 80 | 1.0 | 3.0 | 0.00 | 0.00 | 0.00 | 79 | 1015.0 |
| 20260901185205 | 77 | 80 | 1.0 | 3.0 | 0.00 | 0.00 | 0.00 | 78 | 1015.0 |
| 20260901185104 | 77 | 80 | 1.0 | 3.0 | 0.00 | 0.00 | 0.00 | 78 | 1015.0 |
| 20260901185007 | 77 | 80 | 1.0 | 3.0 | 0.00 | 0.00 | 0.00 | 78 | 1015.0 |
| 20260901184905 | 77 | 80 | 0.0 | 3.0 | 0.00 | 0.00 | 0.00 | 78 | 1015.0 |
| 20260901184708 | 78 | 80 | 3.0 | 3.0 | 0.00 | 0.00 | 0.00 | 78 | 1014.9 |
| 20260901184407 | 78 | 80 | 2.0 | 4.0 | 0.00 | 0.00 | 0.00 | 77 | 1014.8 |
| 20260901184305 | 78 | 80 | 1.0 | 4.0 | 0.00 | 0.00 | 0.00 | 77 | 1014.8 |
| 20260901184204 | 78 | 80 | 2.0 | 4.0 | 0.00 | 0.00 | 0.00 | 77 | 1014.8 |
| 20260901184005 | 78 | 80 | 2.0 | 4.0 | 0.00 | 0.00 | 0.00 | 77 | 1014.8 |
| 20260901183904 | 78 | 80 | 1.0 | 4.0 | 0.00 | 0.00 | 0.00 | 77 | 1014.8 |
| 20260901183806 | 78 | 80 | 2.0 | 4.0 | 0.00 | 0.00 | 0.00 | 77 | 1014.8 |
| 20260901183704 | 78 | 80 | 2.0 | 5.0 | 0.00 | 0.00 | 0.00 | 77 | 1014.8 |
| 20260901183604 | 78 | 80 | 3.0 | 5.0 | 0.00 | 0.00 | 0.00 | 77 | 1014.8 |
| 20260901183511 | 78 | 80 | 5.0 | 7.0 | 0.00 | 0.00 | 0.00 | 77 | 1014.8 |
| 20260901183305 | 79 | 80 | 3.0 | 7.0 | 0.00 | 0.00 | 0.00 | 77 | 1014.8 |
| 20260901183207 | 79 | 80 | 3.0 | 7.0 | 0.00 | 0.00 | 0.00 | 76 | 1014.7 |
| 20260901183105 | 79 | 80 | 2.0 | 8.0 | 0.00 | 0.00 | 0.00 | 76 | 1014.8 |
| 20260901183004 | 79 | 80 | 2.0 | 8.0 | 0.00 | 0.00 | 0.00 | 76 | 1014.8 |
| 20260901182804 | 79 | 80 | 5.0 | 8.0 | 0.00 | 0.00 | 0.00 | 76 | 1014.8 |
| 20260901182607 | 79 | 80 | 5.0 | 8.0 | 0.00 | 0.00 | 0.00 | 76 | 1014.8 |
| 20260901182504 | 79 | 80 | 6.0 | 8.0 | 0.00 | 0.00 | 0.00 | 76 | 1014.8 |
| 20260901182404 | 79 | 80 | 5.0 | 8.0 | 0.00 | 0.00 | 0.00 | 75 | 1014.8 |
| 20260901182308 | 79 | 80 | 5.0 | 8.0 | 0.00 | 0.00 | 0.00 | 75 | 1014.8 |
| 20260901182203 | 79 | 80 | 5.0 | 8.0 | 0.00 | 0.00 | 0.00 | 75 | 1014.8 |
| 20260901182007 | 79 | 69 | 4.0 | 7.0 | 0.00 | 0.00 | 0.00 | 74 | 1014.8 |
| 20260901181904 | 79 | 69 | 3.0 | 7.0 | 0.00 | 0.00 | 0.00 | 74 | 1014.8 |
| 20260901181804 | 79 | 69 | 4.0 | 7.0 | 0.00 | 0.00 | 0.00 | 74 | 1014.8 |
| 20260901181707 | 79 | 69 | 3.0 | 5.0 | 0.00 | 0.00 | 0.00 | 74 | 1014.7 |
| 20260901181606 | 79 | 69 | 3.0 | 5.0 | 0.00 | 0.00 | 0.00 | 74 | 1014.8 |
| 20260901181505 | 80 | 69 | 4.0 | 5.0 | 0.00 | 0.00 | 0.00 | 74 | 1014.8 |
| 20260901181304 | 80 | 69 | 2.0 | 9.0 | 0.00 | 0.00 | 0.00 | 74 | 1014.9 |
| 20260901181205 | 80 | 69 | 3.0 | 9.0 | 0.00 | 0.00 | 0.00 | 74 | 1014.9 |
| 20260901181005 | 80 | 57 | 2.0 | 9.0 | 0.00 | 0.00 | 0.00 | 74 | 1014.9 |
| 20260901180904 | 80 | 63 | 3.0 | 9.0 | 0.00 | 0.00 | 0.00 | 74 | 1014.9 |
| 20260901180806 | 80 | 63 | 3.0 | 9.0 | 0.00 | 0.00 | 0.00 | 74 | 1014.8 |
| 20260901180706 | 80 | 35 | 3.0 | 9.0 | 0.00 | 0.00 | 0.00 | 74 | 1014.8 |
| 20260901180507 | 80 | 78 | 4.0 | 9.0 | 0.00 | 0.00 | 0.00 | 73 | 1014.7 |
| 20260901180404 | 80 | 75 | 9.0 | 9.0 | 0.00 | 0.00 | 0.00 | 73 | 1014.6 |
| 20260901180305 | 80 | 68 | 5.0 | 9.0 | 0.00 | 0.00 | 0.00 | 73 | 1014.6 |
| 20260901180207 | 80 | 74 | 4.0 | 9.0 | 0.00 | 0.00 | 0.00 | 73 | 1014.6 |
| 20260901180129 | 80 | 81 | 5.0 | 9.0 | 0.00 | 0.00 | 0.00 | 72 | 1014.7 |
| 20260901180007 | 80 | 49 | 5.0 | 9.0 | 0.00 | 0.00 | 0.00 | 72 | 1014.6 |
| 20260901175907 | 80 | 26 | 6.0 | 9.0 | 0.00 | 0.00 | 0.00 | 72 | 1014.6 |
| 20260901175803 | 80 | 59 | 5.0 | 9.0 | 0.00 | 0.00 | 0.00 | 72 | 1014.6 |
| 20260901175703 | 81 | 71 | 7.0 | 9.0 | 0.00 | 0.00 | 0.00 | 72 | 1014.6 |
| 20260901175405 | 81 | 88 | 6.0 | 9.0 | 0.00 | 0.00 | 0.00 | 71 | 1014.6 |
| 20260901175307 | 81 | 74 | 7.0 | 10.0 | 0.00 | 0.00 | 0.00 | 71 | 1014.6 |
| 20260901175205 | 81 | 74 | 2.0 | 10.0 | 0.00 | 0.00 | 0.00 | 71 | 1014.6 |
| 20260901175009 | 81 | 74 | 5.0 | 10.0 | 0.00 | 0.00 | 0.00 | 71 | 1014.6 |
| 20260901174905 | 81 | 81 | 5.0 | 10.0 | 0.00 | 0.00 | 0.00 | 71 | 1014.6 |
| 20260901174804 | 81 | 70 | 5.0 | 10.0 | 0.00 | 0.00 | 0.00 | 71 | 1014.6 |
| 20260901174707 | 81 | 61 | 7.0 | 10.0 | 0.00 | 0.00 | 0.00 | 71 | 1014.6 |
| 20260901174505 | 81 | 119 | 7.0 | 10.0 | 0.00 | 0.00 | 0.00 | 70 | 1014.5 |
| 20260901174407 | 81 | 79 | 6.0 | 10.0 | 0.00 | 0.00 | 0.00 | 70 | 1014.5 |
| 20260901174304 | 81 | 75 | 10.0 | 12.0 | 0.00 | 0.00 | 0.00 | 70 | 1014.6 |
| 20260901174204 | 81 | 76 | 5.0 | 12.0 | 0.00 | 0.00 | 0.00 | 69 | 1014.6 |
| 20260901174106 | 81 | 74 | 4.0 | 12.0 | 0.00 | 0.00 | 0.00 | 69 | 1014.6 |